Time,TemperatureF,DewpointF,PressureIn,WindDirection,WindDirectionDegrees,WindSpeedMPH,WindSpeedGustMPH,Humidity,HourlyPrecipIn,Conditions,Clouds,dailyrainin,SolarRadiationWatts/m^2,SoftwareType,DateUTC
2013-07-23 00:00:00,74.8,70.0,29.78,SSW,201,1.1,3.4,85,0.00,,,0.01,0.00,VWS V14.01,2013-07-23 05:00:00,
2013-07-23 00:01:00,74.8,70.0,29.78,SSW,199,4.6,4.6,85,0.00,,,0.00,0.00,VWS V14.01,2013-07-23 05:01:00,
2013-07-23 00:02:00,74.8,70.0,29.78,South,177,2.3,5.8,85,0.00,,,0.00,0.00,VWS V14.01,2013-07-23 05:02:00,
2013-07-23 00:03:00,74.7,69.9,29.78,SSW,202,5.8,6.9,85,0.00,,,0.00,0.00,VWS V14.01,2013-07-23 05:03:00,
2013-07-23 00:04:00,74.7,69.9,29.78,SSW,197,1.1,2.3,85,0.00,,,0.00,0.00,VWS V14.01,2013-07-23 05:04:00,
2013-07-23 00:05:00,74.7,69.9,29.78,SSW,197,0.0,3.4,85,0.00,,,0.00,0.00,VWS V14.01,2013-07-23 05:05:00,
2013-07-23 00:07:00,74.6,69.8,29.78,SW,215,5.8,6.9,85,0.00,,,0.00,0.00,VWS V14.01,2013-07-23 05:07:00,
2013-07-23 00:08:00,74.6,69.8,29.78,SW,218,3.4,5.8,85,0.00,,,0.00,0.00,VWS V14.01,2013-07-23 05:08:00,
2013-07-23 00:09:00,74.6,70.1,29.78,SSW,208,0.0,4.6,86,0.00,,,0.00,0.00,VWS V14.01,2013-07-23 05:09:00,
2013-07-23 00:10:00,74.6,70.1,29.78,SW,226,1.1,5.8,86,0.00,,,0.00,0.00,VWS V14.01,2013-07-23 05:10:00,
2013-07-23 00:13:00,74.5,70.0,29.78,WNW,291,2.3,2.3,86,0.00,,,0.00,0.00,VWS V14.01,2013-07-23 05:13:00,
2013-07-23 00:14:00,74.5,70.0,29.78,SSW,212,6.9,6.9,86,0.00,,,0.00,0.00,VWS V14.01,2013-07-23 05:14:00,
2013-07-23 00:15:00,74.5,70.0,29.78,SW,217,3.4,3.4,86,0.00,,,0.00,0.00,VWS V14.01,2013-07-23 05:15:00,
2013-07-23 00:17:00,74.6,70.1,29.78,WSW,244,1.1,1.1,86,0.00,,,0.00,0.00,VWS V14.01,2013-07-23 05:17:00,
2013-07-23 00:18:00,74.6,70.1,29.78,WSW,239,4.6,4.6,86,0.00,,,0.00,0.00,VWS V14.01,2013-07-23 05:18:00,
2013-07-23 00:19:00,74.6,70.1,29.78,SSW,204,2.3,4.6,86,0.00,,,0.00,0.00,VWS V14.01,2013-07-23 05:19:00,
2013-07-23 00:20:00,74.6,70.1,29.78,WSW,239,2.3,2.3,86,0.00,,,0.00,0.00,VWS V14.01,2013-07-23 05:20:00,
2013-07-23 00:22:00,74.7,70.2,29.79,West,260,6.9,8.1,86,0.00,,,0.00,0.00,VWS V14.01,2013-07-23 05:22:00,
2013-07-23 00:23:00,74.8,70.3,29.80,West,274,10.3,10.3,86,0.00,,,0.00,0.00,VWS V14.01,2013-07-23 05:23:00,
2013-07-23 00:25:00,74.9,70.4,29.81,West,271,25.3,33.3,86,0.00,,,0.00,0.00,VWS V14.01,2013-07-23 05:25:00,
2013-07-23 00:27:00,75.1,69.2,29.82,WNW,301,12.6,25.3,82,0.00,,,0.00,0.00,VWS V14.01,2013-07-23 05:27:00,
2013-07-23 00:28:00,75.2,67.9,29.82,WNW,295,16.1,27.6,78,0.00,,,0.00,0.00,VWS V14.01,2013-07-23 05:28:00,
2013-07-23 00:29:00,75.4,67.3,29.82,WNW,285,24.1,34.5,76,0.00,,,0.00,0.00,VWS V14.01,2013-07-23 05:29:00,
2013-07-23 00:30:00,75.5,66.6,29.81,WNW,297,13.8,24.1,74,0.00,,,0.00,0.00,VWS V14.01,2013-07-23 05:30:00,
2013-07-23 00:33:00,75.8,65.3,29.81,NW,307,21.9,25.3,70,0.00,,,0.00,0.00,VWS V14.01,2013-07-23 05:33:00,
2013-07-23 00:35:00,75.7,64.4,29.81,NW,310,13.8,21.9,68,0.00,,,0.00,0.00,VWS V14.01,2013-07-23 05:35:00,
2013-07-23 00:36:00,75.7,64.4,29.82,WNW,300,24.1,24.1,68,0.00,,,0.00,0.00,VWS V14.01,2013-07-23 05:36:00,
2013-07-23 00:38:00,75.4,64.5,29.82,NW,305,13.8,27.6,69,0.00,,,0.00,0.00,VWS V14.01,2013-07-23 05:38:00,
2013-07-23 00:40:00,75.0,65.0,29.82,NW,315,8.1,18.4,71,0.00,,,0.00,0.00,VWS V14.01,2013-07-23 05:40:00,
2013-07-23 00:41:00,74.7,65.1,29.82,NNW,339,16.1,20.7,72,0.00,,,0.00,0.00,VWS V14.01,2013-07-23 05:41:00,
2013-07-23 00:43:00,73.8,64.6,29.81,WNW,293,21.9,21.9,73,0.00,,,0.00,0.00,VWS V14.01,2013-07-23 05:43:00,
2013-07-23 00:44:00,73.5,64.7,29.81,NW,322,14.9,18.4,74,0.00,,,0.00,0.00,VWS V14.01,2013-07-23 05:44:00,
2013-07-23 00:45:00,73.0,64.6,29.81,NW,322,23.0,25.3,75,0.00,,,0.00,0.00,VWS V14.01,2013-07-23 05:45:00,
2013-07-23 00:46:00,72.7,64.3,29.80,NW,305,9.2,23.0,75,0.00,,,0.00,0.00,VWS V14.01,2013-07-23 05:46:00,
2013-07-23 00:48:00,72.0,64.4,29.80,WNW,302,13.8,16.1,77,0.00,,,0.00,0.00,VWS V14.01,2013-07-23 05:48:00,
2013-07-23 00:50:00,71.7,64.5,29.80,NNW,329,10.3,12.6,78,0.00,,,0.00,0.00,VWS V14.01,2013-07-23 05:50:00,
2013-07-23 00:51:00,71.5,64.3,29.80,West,278,10.3,16.1,78,0.00,,,0.00,0.00,VWS V14.01,2013-07-23 05:51:00,
2013-07-23 00:52:00,71.3,64.5,29.80,North,354,6.9,16.1,79,0.00,,,0.00,0.00,VWS V14.01,2013-07-23 05:52:00,
2013-07-23 00:53:00,71.1,64.3,29.80,NW,304,16.1,16.1,79,0.00,,,0.00,0.00,VWS V14.01,2013-07-23 05:53:00,
2013-07-23 00:55:00,70.9,64.4,29.79,NW,310,10.3,13.8,80,0.00,,,0.00,0.00,VWS V14.01,2013-07-23 05:55:00,
2013-07-23 00:57:00,70.8,64.3,29.79,NNW,336,4.6,13.8,80,0.00,,,0.00,0.00,VWS V14.01,2013-07-23 05:57:00,
2013-07-23 00:59:00,70.7,64.2,29.79,NW,324,9.2,9.2,80,0.00,,,0.00,0.00,VWS V14.01,2013-07-23 05:59:00,
2013-07-23 01:00:00,70.7,64.2,29.79,NNW,347,11.5,17.2,80,0.00,,,0.00,0.00,VWS V14.01,2013-07-23 06:00:00,
2013-07-23 01:01:00,70.7,64.2,29.79,North,11,9.2,13.8,80,0.00,,,0.00,0.00,VWS V14.01,2013-07-23 06:01:00,
2013-07-23 01:02:00,70.6,64.1,29.79,NW,310,10.3,16.1,80,0.00,,,0.00,0.00,VWS V14.01,2013-07-23 06:02:00,
2013-07-23 01:04:00,70.6,64.1,29.79,WNW,296,12.6,12.6,80,0.00,,,0.00,0.00,VWS V14.01,2013-07-23 06:04:00,
2013-07-23 01:05:00,70.6,64.1,29.79,WNW,297,8.1,12.6,80,0.00,,,0.00,0.00,VWS V14.01,2013-07-23 06:05:00,
2013-07-23 01:06:00,70.6,63.8,29.79,NNE,24,9.2,9.2,79,0.00,,,0.00,0.00,VWS V14.01,2013-07-23 06:06:00,
2013-07-23 01:09:00,70.6,64.1,29.79,NW,322,11.5,11.5,80,0.00,,,0.00,0.00,VWS V14.01,2013-07-23 06:09:00,
2013-07-23 01:10:00,70.5,64.0,29.79,NW,322,13.8,13.8,80,0.00,,,0.00,0.00,VWS V14.01,2013-07-23 06:10:00,
2013-07-23 01:11:00,70.5,64.0,29.79,NW,324,11.5,12.6,80,0.00,,,0.00,0.00,VWS V14.01,2013-07-23 06:11:00,
2013-07-23 01:13:00,70.5,64.0,29.79,NW,325,8.1,8.1,80,0.00,,,0.00,0.00,VWS V14.01,2013-07-23 06:13:00,
2013-07-23 01:14:00,70.4,63.9,29.79,NNW,330,9.2,9.2,80,0.00,,,0.00,0.00,VWS V14.01,2013-07-23 06:14:00,
2013-07-23 01:16:00,70.5,64.0,29.79,North,354,6.9,8.1,80,0.00,,,0.00,0.00,VWS V14.01,2013-07-23 06:16:00,
2013-07-23 01:17:00,70.5,63.7,29.79,NNW,328,14.9,16.1,79,0.00,,,0.00,0.00,VWS V14.01,2013-07-23 06:17:00,
2013-07-23 01:18:00,70.6,63.8,29.79,North,349,9.2,11.5,79,0.00,,,0.00,0.00,VWS V14.01,2013-07-23 06:18:00,
2013-07-23 01:20:00,70.7,63.9,29.79,NNW,329,5.8,8.1,79,0.00,,,0.00,0.00,VWS V14.01,2013-07-23 06:20:00,
2013-07-23 01:21:00,70.7,63.9,29.79,WNW,296,9.2,9.2,79,0.00,,,0.00,0.00,VWS V14.01,2013-07-23 06:21:00,
2013-07-23 01:22:00,70.7,63.9,29.79,WNW,298,6.9,10.3,79,0.00,,,0.00,0.00,VWS V14.01,2013-07-23 06:22:00,
2013-07-23 01:24:00,70.8,63.6,29.78,WNW,287,8.1,11.5,78,0.00,,,0.00,0.00,VWS V14.01,2013-07-23 06:24:00,
2013-07-23 01:26:00,70.9,63.7,29.78,WNW,299,3.4,11.5,78,0.00,,,0.00,0.00,VWS V14.01,2013-07-23 06:26:00,
2013-07-23 01:27:00,70.9,63.7,29.78,NW,314,3.4,8.1,78,0.00,,,0.00,0.00,VWS V14.01,2013-07-23 06:27:00,
2013-07-23 01:28:00,70.9,63.7,29.78,WNW,299,4.6,4.6,78,0.00,,,0.00,0.00,VWS V14.01,2013-07-23 06:28:00,
2013-07-23 01:29:00,71.0,63.8,29.78,North,4,3.4,8.1,78,0.00,,,0.00,0.00,VWS V14.01,2013-07-23 06:29:00,
2013-07-23 01:31:00,71.0,63.8,29.78,WNW,297,6.9,6.9,78,0.00,,,0.00,0.00,VWS V14.01,2013-07-23 06:31:00,
2013-07-23 01:33:00,71.0,63.8,29.77,NW,305,3.4,9.2,78,0.00,,,0.00,0.00,VWS V14.01,2013-07-23 06:33:00,
2013-07-23 01:34:00,71.1,63.9,29.77,WNW,303,6.9,6.9,78,0.00,,,0.00,0.00,VWS V14.01,2013-07-23 06:34:00,
2013-07-23 01:37:00,71.1,63.9,29.76,WNW,299,8.1,8.1,78,0.00,,,0.00,0.00,VWS V14.01,2013-07-23 06:37:00,
2013-07-23 01:39:00,71.1,63.9,29.76,WNW,299,6.9,6.9,78,0.00,,,0.00,0.00,VWS V14.01,2013-07-23 06:39:00,
2013-07-23 01:40:00,71.1,63.9,29.76,NW,324,6.9,6.9,78,0.00,,,0.00,0.00,VWS V14.01,2013-07-23 06:40:00,
2013-07-23 01:43:00,71.1,63.5,29.75,WNW,297,4.6,4.6,77,0.00,,,0.00,0.00,VWS V14.01,2013-07-23 06:43:00,
2013-07-23 01:44:00,71.2,63.6,29.75,NW,324,4.6,5.8,77,0.00,,,0.00,0.00,VWS V14.01,2013-07-23 06:44:00,
2013-07-23 01:45:00,71.2,63.6,29.74,NW,324,2.3,4.6,77,0.00,,,0.00,0.00,VWS V14.01,2013-07-23 06:45:00,
2013-07-23 01:48:00,71.0,63.4,29.74,NW,326,0.0,0.0,77,0.00,,,0.00,0.00,VWS V14.01,2013-07-23 06:48:00,
2013-07-23 01:50:00,70.9,63.7,29.73,NW,326,0.0,0.0,78,0.00,,,0.00,0.00,VWS V14.01,2013-07-23 06:50:00,
2013-07-23 01:51:00,70.9,63.7,29.73,NW,326,0.0,0.0,78,0.00,,,0.00,0.00,VWS V14.01,2013-07-23 06:51:00,
2013-07-23 01:54:00,70.8,64.0,29.72,NW,326,0.0,0.0,79,0.00,,,0.00,0.00,VWS V14.01,2013-07-23 06:54:00,
2013-07-23 01:56:00,70.8,63.6,29.72,NW,326,0.0,0.0,78,0.00,,,0.00,0.00,VWS V14.01,2013-07-23 06:56:00,
2013-07-23 01:57:00,70.8,63.6,29.72,NW,326,0.0,0.0,78,0.00,,,0.00,0.00,VWS V14.01,2013-07-23 06:57:00,
2013-07-23 01:59:00,70.8,63.2,29.72,NW,326,0.0,2.3,77,0.00,,,0.00,0.00,VWS V14.01,2013-07-23 06:59:00,
2013-07-23 02:02:00,70.6,63.4,29.71,South,176,1.1,3.4,78,0.00,,,0.00,0.00,VWS V14.01,2013-07-23 07:02:00,
2013-07-23 02:03:00,70.5,63.7,29.70,South,176,3.4,3.4,79,0.00,,,0.00,0.00,VWS V14.01,2013-07-23 07:03:00,
2013-07-23 02:04:00,70.5,63.7,29.70,South,176,2.3,3.4,79,0.00,,,0.00,0.00,VWS V14.01,2013-07-23 07:04:00,
2013-07-23 02:08:00,70.5,63.3,29.70,South,176,2.3,3.4,78,0.00,,,0.00,0.00,VWS V14.01,2013-07-23 07:08:00,
2013-07-23 02:09:00,70.5,63.7,29.69,South,176,0.0,0.0,79,0.00,,,0.00,0.00,VWS V14.01,2013-07-23 07:09:00,
2013-07-23 02:13:00,70.3,63.5,29.69,South,176,2.3,2.3,79,0.00,,,0.00,0.00,VWS V14.01,2013-07-23 07:13:00,
2013-07-23 02:14:00,70.3,63.8,29.68,ESE,122,3.4,3.4,80,0.00,,,0.00,0.00,VWS V14.01,2013-07-23 07:14:00,
2013-07-23 02:15:00,70.3,63.8,29.68,East,83,6.9,6.9,80,0.00,,,0.00,0.00,VWS V14.01,2013-07-23 07:15:00,
2013-07-23 02:19:00,69.9,63.8,29.68,SE,137,3.4,3.4,81,0.00,,,0.00,0.00,VWS V14.01,2013-07-23 07:19:00,
2013-07-23 02:20:00,69.7,63.6,29.68,SE,135,2.3,3.4,81,0.00,,,0.00,0.00,VWS V14.01,2013-07-23 07:20:00,
2013-07-23 02:21:00,69.5,63.8,29.68,SE,135,2.3,2.3,82,0.00,,,0.00,0.00,VWS V14.01,2013-07-23 07:21:00,
2013-07-23 02:24:00,69.4,63.7,29.68,SE,133,1.1,1.1,82,0.00,,,0.00,0.00,VWS V14.01,2013-07-23 07:24:00,
2013-07-23 02:26:00,69.2,63.5,29.69,SE,133,0.0,0.0,82,0.00,,,0.00,0.00,VWS V14.01,2013-07-23 07:26:00,
2013-07-23 02:27:00,69.2,63.8,29.69,SE,133,0.0,0.0,83,0.00,,,0.00,0.00,VWS V14.01,2013-07-23 07:27:00,
2013-07-23 02:29:00,69.1,63.7,29.70,SW,216,4.6,5.8,83,0.00,,,0.00,0.00,VWS V14.01,2013-07-23 07:29:00,
2013-07-23 02:30:00,69.1,63.7,29.70,SW,216,2.3,3.4,83,0.00,,,0.00,0.00,VWS V14.01,2013-07-23 07:30:00,
2013-07-23 02:32:00,69.1,63.7,29.70,SW,217,4.6,4.6,83,0.00,,,0.00,0.00,VWS V14.01,2013-07-23 07:32:00,
2013-07-23 02:33:00,69.2,63.8,29.70,SW,218,3.4,4.6,83,0.00,,,0.00,0.00,VWS V14.01,2013-07-23 07:33:00,
2013-07-23 02:34:00,69.3,63.6,29.70,SW,218,0.0,2.3,82,0.00,,,0.00,0.00,VWS V14.01,2013-07-23 07:34:00,
2013-07-23 02:35:00,69.3,63.6,29.70,SW,218,0.0,0.0,82,0.00,,,0.00,0.00,VWS V14.01,2013-07-23 07:35:00,
2013-07-23 02:37:00,69.2,63.5,29.70,SW,218,1.1,1.1,82,0.00,,,0.00,0.00,VWS V14.01,2013-07-23 07:37:00,
2013-07-23 02:39:00,69.2,63.5,29.71,WSW,241,5.8,6.9,82,0.00,,,0.00,0.00,VWS V14.01,2013-07-23 07:39:00,
2013-07-23 02:40:00,69.2,63.5,29.71,WSW,241,3.4,3.4,82,0.00,,,0.00,0.00,VWS V14.01,2013-07-23 07:40:00,
2013-07-23 02:42:00,69.3,63.9,29.71,SSW,213,4.6,4.6,83,0.00,,,0.00,0.00,VWS V14.01,2013-07-23 07:42:00,
2013-07-23 02:43:00,69.3,63.9,29.71,SSW,208,5.8,5.8,83,0.00,,,0.00,0.00,VWS V14.01,2013-07-23 07:43:00,
2013-07-23 02:44:00,69.3,63.9,29.71,SSW,204,4.6,4.6,83,0.00,,,0.00,0.00,VWS V14.01,2013-07-23 07:44:00,
2013-07-23 02:45:00,69.2,63.8,29.71,SSW,201,4.6,5.8,83,0.00,,,0.00,0.00,VWS V14.01,2013-07-23 07:45:00,
2013-07-23 02:49:00,68.8,63.8,29.70,SSW,200,2.3,2.3,84,0.00,,,0.00,0.00,VWS V14.01,2013-07-23 07:49:00,
2013-07-23 02:50:00,68.7,63.7,29.70,SSW,200,3.4,4.6,84,0.00,,,0.00,0.00,VWS V14.01,2013-07-23 07:50:00,
2013-07-23 02:54:00,68.5,63.8,29.71,SSW,201,2.3,3.4,85,0.00,,,0.00,0.00,VWS V14.01,2013-07-23 07:54:00,
2013-07-23 02:55:00,68.5,63.8,29.71,SSW,200,1.1,4.6,85,0.00,,,0.00,0.00,VWS V14.01,2013-07-23 07:55:00,
2013-07-23 02:56:00,68.5,63.8,29.71,SSW,200,2.3,2.3,85,0.00,,,0.00,0.00,VWS V14.01,2013-07-23 07:56:00,
2013-07-23 02:57:00,68.4,63.7,29.71,SSW,195,4.6,6.9,85,0.00,,,0.00,0.00,VWS V14.01,2013-07-23 07:57:00,
2013-07-23 03:00:00,68.2,63.9,29.71,South,185,3.4,6.9,86,0.00,,,0.00,0.00,VWS V14.01,2013-07-23 08:00:00,
2013-07-23 03:01:00,68.2,63.9,29.71,South,185,3.4,4.6,86,0.00,,,0.00,0.00,VWS V14.01,2013-07-23 08:01:00,
2013-07-23 03:02:00,68.1,63.8,29.71,South,185,2.3,4.6,86,0.00,,,0.00,0.00,VWS V14.01,2013-07-23 08:02:00,
2013-07-23 03:05:00,67.9,63.9,29.71,SSW,210,5.8,5.8,87,0.00,,,0.00,0.00,VWS V14.01,2013-07-23 08:05:00,
2013-07-23 03:07:00,67.7,63.7,29.71,SSW,192,2.3,8.1,87,0.00,,,0.00,0.00,VWS V14.01,2013-07-23 08:07:00,
2013-07-23 03:08:00,67.7,63.7,29.71,SSW,195,4.6,6.9,87,0.00,,,0.00,0.00,VWS V14.01,2013-07-23 08:08:00,
2013-07-23 03:09:00,67.7,63.7,29.71,SSW,197,3.4,5.8,87,0.00,,,0.00,0.00,VWS V14.01,2013-07-23 08:09:00,
2013-07-23 03:10:00,67.6,63.6,29.72,SSW,195,6.9,6.9,87,0.00,,,0.00,0.00,VWS V14.01,2013-07-23 08:10:00,
2013-07-23 03:12:00,67.5,63.8,29.72,SSW,195,2.3,4.6,88,0.00,,,0.00,0.00,VWS V14.01,2013-07-23 08:12:00,
2013-07-23 03:13:00,67.5,63.8,29.72,SSW,196,0.0,4.6,88,0.00,,,0.00,0.00,VWS V14.01,2013-07-23 08:13:00,
2013-07-23 03:15:00,67.5,63.8,29.72,South,191,1.1,5.8,88,0.00,,,0.00,0.00,VWS V14.01,2013-07-23 08:15:00,
2013-07-23 03:17:00,67.4,63.7,29.72,SSW,195,5.8,5.8,88,0.00,,,0.00,0.00,VWS V14.01,2013-07-23 08:17:00,
2013-07-23 03:19:00,67.4,63.7,29.72,SSW,197,1.1,3.4,88,0.00,,,0.00,0.00,VWS V14.01,2013-07-23 08:19:00,
2013-07-23 03:20:00,67.3,63.6,29.72,SSW,194,2.3,4.6,88,0.00,,,0.00,0.00,VWS V14.01,2013-07-23 08:20:00,
2013-07-23 03:21:00,67.4,63.7,29.72,SSW,195,1.1,3.4,88,0.00,,,0.00,0.00,VWS V14.01,2013-07-23 08:21:00,
2013-07-23 03:23:00,67.4,63.7,29.72,SSW,197,6.9,8.1,88,0.00,,,0.00,0.00,VWS V14.01,2013-07-23 08:23:00,
2013-07-23 03:24:00,67.3,63.6,29.72,SSW,202,5.8,8.1,88,0.00,,,0.00,0.00,VWS V14.01,2013-07-23 08:24:00,
2013-07-23 03:25:00,67.3,63.6,29.72,SSW,210,3.4,8.1,88,0.00,,,0.00,0.00,VWS V14.01,2013-07-23 08:25:00,
2013-07-23 03:26:00,67.3,63.6,29.72,SSW,193,4.6,4.6,88,0.00,,,0.00,0.00,VWS V14.01,2013-07-23 08:26:00,
2013-07-23 03:30:00,67.3,63.6,29.72,SSW,205,3.4,4.6,88,0.00,,,0.00,0.00,VWS V14.01,2013-07-23 08:30:00,
2013-07-23 03:31:00,67.3,63.6,29.72,SSW,205,2.3,2.3,88,0.00,,,0.00,0.00,VWS V14.01,2013-07-23 08:31:00,
2013-07-23 03:32:00,67.3,63.6,29.73,SSW,193,1.1,2.3,88,0.00,,,0.00,0.00,VWS V14.01,2013-07-23 08:32:00,
2013-07-23 03:35:00,67.2,63.5,29.73,South,183,2.3,2.3,88,0.00,,,0.00,0.00,VWS V14.01,2013-07-23 08:35:00,
2013-07-23 03:36:00,67.2,63.5,29.73,SSW,193,3.4,6.9,88,0.00,,,0.00,0.00,VWS V14.01,2013-07-23 08:36:00,
2013-07-23 03:37:00,67.1,63.4,29.73,SSW,193,2.3,2.3,88,0.00,,,0.00,0.00,VWS V14.01,2013-07-23 08:37:00,
2013-07-23 03:38:00,67.1,63.4,29.73,SSW,194,4.6,4.6,88,0.00,,,0.00,0.00,VWS V14.01,2013-07-23 08:38:00,
2013-07-23 03:39:00,67.1,63.4,29.73,SSW,208,2.3,5.8,88,0.00,,,0.00,0.00,VWS V14.01,2013-07-23 08:39:00,
2013-07-23 03:40:00,67.0,63.7,29.73,SSW,208,0.0,3.4,89,0.00,,,0.00,0.00,VWS V14.01,2013-07-23 08:40:00,
2013-07-23 03:42:00,67.0,63.7,29.73,SSW,208,2.3,2.3,89,0.00,,,0.00,0.00,VWS V14.01,2013-07-23 08:42:00,
2013-07-23 03:43:00,67.0,63.7,29.74,SSW,208,1.1,2.3,89,0.00,,,0.00,0.00,VWS V14.01,2013-07-23 08:43:00,
2013-07-23 03:45:00,67.0,63.7,29.74,WNW,301,4.6,5.8,89,0.00,,,0.00,0.00,VWS V14.01,2013-07-23 08:45:00,
2013-07-23 03:47:00,67.1,63.8,29.75,NW,307,2.3,5.8,89,0.00,,,0.00,0.00,VWS V14.01,2013-07-23 08:47:00,
2013-07-23 03:48:00,67.1,63.8,29.75,NW,307,1.1,1.1,89,0.00,,,0.00,0.00,VWS V14.01,2013-07-23 08:48:00,
2013-07-23 03:49:00,67.1,63.8,29.75,NW,307,1.1,1.1,89,0.00,,,0.00,0.00,VWS V14.01,2013-07-23 08:49:00,
2013-07-23 03:50:00,67.1,63.8,29.75,NW,320,3.4,6.9,89,0.00,,,0.00,0.00,VWS V14.01,2013-07-23 08:50:00,
2013-07-23 03:53:00,67.1,63.8,29.75,NW,318,1.1,8.1,89,0.00,,,0.00,0.00,VWS V14.01,2013-07-23 08:53:00,
2013-07-23 03:54:00,67.0,63.7,29.75,NW,318,1.1,1.1,89,0.00,,,0.00,0.00,VWS V14.01,2013-07-23 08:54:00,
2013-07-23 03:56:00,66.9,63.6,29.75,WNW,295,1.1,3.4,89,0.00,,,0.00,0.00,VWS V14.01,2013-07-23 08:56:00,
2013-07-23 03:57:00,66.9,63.6,29.75,WNW,294,1.1,1.1,89,0.00,,,0.00,0.00,VWS V14.01,2013-07-23 08:57:00,
2013-07-23 03:58:00,66.8,63.5,29.75,West,278,4.6,4.6,89,0.00,,,0.00,0.00,VWS V14.01,2013-07-23 08:58:00,
2013-07-23 03:59:00,66.8,63.8,29.75,West,279,2.3,4.6,90,0.00,,,0.00,0.00,VWS V14.01,2013-07-23 08:59:00,
2013-07-23 04:01:00,66.8,63.8,29.75,WNW,283,3.4,3.4,90,0.00,,,0.00,0.00,VWS V14.01,2013-07-23 09:01:00,
2013-07-23 04:02:00,66.9,63.9,29.75,WNW,283,2.3,2.3,90,0.00,,,0.00,0.00,VWS V14.01,2013-07-23 09:02:00,
2013-07-23 04:03:00,66.9,63.9,29.75,West,281,3.4,3.4,90,0.00,,,0.00,0.00,VWS V14.01,2013-07-23 09:03:00,
2013-07-23 04:04:00,67.0,63.7,29.75,West,281,0.0,0.0,89,0.00,,,0.00,0.00,VWS V14.01,2013-07-23 09:04:00,
2013-07-23 04:05:00,66.9,63.6,29.75,West,281,0.0,0.0,89,0.00,,,0.00,0.00,VWS V14.01,2013-07-23 09:05:00,
2013-07-23 04:06:00,66.8,63.5,29.75,West,281,0.0,0.0,89,0.00,,,0.00,0.00,VWS V14.01,2013-07-23 09:06:00,
2013-07-23 04:07:00,66.8,63.5,29.74,West,281,0.0,0.0,89,0.00,,,0.00,0.00,VWS V14.01,2013-07-23 09:07:00,
2013-07-23 04:09:00,66.7,63.7,29.75,West,281,0.0,0.0,90,0.00,,,0.00,0.00,VWS V14.01,2013-07-23 09:09:00,
2013-07-23 04:10:00,66.6,63.6,29.75,West,267,3.4,3.4,90,0.00,,,0.00,0.00,VWS V14.01,2013-07-23 09:10:00,
2013-07-23 04:12:00,66.6,63.6,29.74,SW,234,3.4,3.4,90,0.00,,,0.00,0.00,VWS V14.01,2013-07-23 09:12:00,
2013-07-23 04:14:00,66.5,63.5,29.74,SSW,196,2.3,2.3,90,0.00,,,0.00,0.00,VWS V14.01,2013-07-23 09:14:00,
2013-07-23 04:15:00,66.5,63.5,29.74,SSW,196,0.0,2.3,90,0.00,,,0.00,0.00,VWS V14.01,2013-07-23 09:15:00,
2013-07-23 04:17:00,66.5,63.5,29.74,SSW,194,3.4,3.4,90,0.00,,,0.00,0.00,VWS V14.01,2013-07-23 09:17:00,
2013-07-23 04:18:00,66.4,63.4,29.74,South,191,0.0,2.3,90,0.00,,,0.00,0.00,VWS V14.01,2013-07-23 09:18:00,
2013-07-23 04:20:00,66.4,63.4,29.74,South,191,0.0,1.1,90,0.00,,,0.00,0.00,VWS V14.01,2013-07-23 09:20:00,
2013-07-23 04:22:00,66.2,63.2,29.74,South,191,0.0,2.3,90,0.00,,,0.00,0.00,VWS V14.01,2013-07-23 09:22:00,
2013-07-23 04:23:00,66.2,63.5,29.74,South,191,0.0,0.0,91,0.00,,,0.00,0.00,VWS V14.01,2013-07-23 09:23:00,
2013-07-23 04:24:00,66.2,63.5,29.74,SSW,192,1.1,1.1,91,0.00,,,0.00,0.00,VWS V14.01,2013-07-23 09:24:00,
2013-07-23 04:25:00,66.2,63.5,29.74,SW,214,2.3,2.3,91,0.00,,,0.00,0.00,VWS V14.01,2013-07-23 09:25:00,
2013-07-23 04:27:00,66.2,63.5,29.74,SW,222,1.1,2.3,91,0.00,,,0.00,0.00,VWS V14.01,2013-07-23 09:27:00,
2013-07-23 04:28:00,66.2,63.5,29.74,WSW,241,2.3,2.3,91,0.00,,,0.00,0.00,VWS V14.01,2013-07-23 09:28:00,
2013-07-23 04:29:00,66.2,63.5,29.75,WSW,251,2.3,2.3,91,0.00,,,0.00,0.00,VWS V14.01,2013-07-23 09:29:00,
2013-07-23 04:30:00,66.2,63.5,29.75,West,277,2.3,4.6,91,0.00,,,0.00,0.00,VWS V14.01,2013-07-23 09:30:00,
2013-07-23 04:31:00,66.3,63.6,29.75,West,277,3.4,3.4,91,0.00,,,0.00,0.00,VWS V14.01,2013-07-23 09:31:00,
2013-07-23 04:32:00,66.3,63.6,29.75,WSW,247,2.3,4.6,91,0.00,,,0.00,0.00,VWS V14.01,2013-07-23 09:32:00,
2013-07-23 04:33:00,66.3,63.6,29.75,WSW,247,3.4,5.8,91,0.00,,,0.00,0.00,VWS V14.01,2013-07-23 09:33:00,
2013-07-23 04:35:00,66.3,63.6,29.75,WSW,247,2.3,4.6,91,0.00,,,0.00,0.00,VWS V14.01,2013-07-23 09:35:00,
2013-07-23 04:36:00,66.3,63.6,29.75,WSW,247,2.3,3.4,91,0.00,,,0.00,0.00,VWS V14.01,2013-07-23 09:36:00,
2013-07-23 04:37:00,66.1,63.4,29.74,WSW,247,1.1,3.4,91,0.00,,,0.00,0.00,VWS V14.01,2013-07-23 09:37:00,
2013-07-23 04:38:00,66.1,63.4,29.74,WSW,247,1.1,1.1,91,0.00,,,0.00,0.00,VWS V14.01,2013-07-23 09:38:00,
2013-07-23 04:39:00,66.0,63.3,29.74,WSW,247,1.1,1.1,91,0.00,,,0.00,0.00,VWS V14.01,2013-07-23 09:39:00,
2013-07-23 04:40:00,65.9,63.2,29.74,WSW,246,2.3,3.4,91,0.00,,,0.00,0.00,VWS V14.01,2013-07-23 09:40:00,
2013-07-23 04:42:00,65.9,63.5,29.74,WSW,238,1.1,3.4,92,0.00,,,0.00,0.00,VWS V14.01,2013-07-23 09:42:00,
2013-07-23 04:43:00,65.8,63.4,29.74,WSW,238,3.4,3.4,92,0.00,,,0.00,0.00,VWS V14.01,2013-07-23 09:43:00,
2013-07-23 04:45:00,65.8,63.4,29.74,WSW,237,1.1,5.8,92,0.00,,,0.00,0.00,VWS V14.01,2013-07-23 09:45:00,
2013-07-23 04:47:00,65.8,63.4,29.74,SW,227,1.1,3.4,92,0.00,,,0.00,0.00,VWS V14.01,2013-07-23 09:47:00,
2013-07-23 04:48:00,65.8,63.4,29.74,SSW,208,1.1,3.4,92,0.00,,,0.00,0.00,VWS V14.01,2013-07-23 09:48:00,
2013-07-23 04:51:00,65.7,63.3,29.74,SSW,208,2.3,2.3,92,0.00,,,0.00,0.00,VWS V14.01,2013-07-23 09:51:00,
2013-07-23 04:52:00,65.7,63.3,29.74,SW,220,2.3,4.6,92,0.00,,,0.00,0.00,VWS V14.01,2013-07-23 09:52:00,
2013-07-23 04:53:00,65.6,63.2,29.74,SW,231,3.4,5.8,92,0.00,,,0.00,0.00,VWS V14.01,2013-07-23 09:53:00,
2013-07-23 04:55:00,65.6,63.2,29.74,SW,231,0.0,0.0,92,0.00,,,0.00,0.00,VWS V14.01,2013-07-23 09:55:00,
2013-07-23 04:56:00,65.6,63.2,29.74,SW,229,2.3,2.3,92,0.00,,,0.00,0.00,VWS V14.01,2013-07-23 09:56:00,
2013-07-23 04:57:00,65.6,63.2,29.74,SW,233,4.6,4.6,92,0.00,,,0.00,0.00,VWS V14.01,2013-07-23 09:57:00,
2013-07-23 04:58:00,65.6,63.5,29.74,SW,228,2.3,3.4,93,0.00,,,0.00,0.00,VWS V14.01,2013-07-23 09:58:00,
2013-07-23 04:59:00,65.6,63.2,29.74,SW,229,3.4,4.6,92,0.00,,,0.00,0.00,VWS V14.01,2013-07-23 09:59:00,
2013-07-23 05:00:00,65.6,63.2,29.74,WSW,242,2.3,5.8,92,0.00,,,0.00,0.00,VWS V14.01,2013-07-23 10:00:00,
2013-07-23 05:01:00,65.6,63.2,29.74,WSW,242,5.8,5.8,92,0.00,,,0.00,0.00,VWS V14.01,2013-07-23 10:01:00,
2013-07-23 05:03:00,65.5,63.1,29.74,WSW,238,1.1,1.1,92,0.00,,,0.00,0.00,VWS V14.01,2013-07-23 10:03:00,
2013-07-23 05:04:00,65.5,63.1,29.74,WSW,238,0.0,0.0,92,0.00,,,0.00,0.00,VWS V14.01,2013-07-23 10:04:00,
2013-07-23 05:05:00,65.4,63.0,29.74,SW,226,0.0,2.3,92,0.00,,,0.00,0.00,VWS V14.01,2013-07-23 10:05:00,
2013-07-23 05:06:00,65.4,63.0,29.74,SW,226,1.1,1.1,92,0.00,,,0.00,0.00,VWS V14.01,2013-07-23 10:06:00,
2013-07-23 05:08:00,65.4,63.3,29.74,SW,227,0.0,3.4,93,0.00,,,0.00,0.00,VWS V14.01,2013-07-23 10:08:00,
2013-07-23 05:09:00,65.3,63.2,29.74,SW,227,3.4,3.4,93,0.00,,,0.00,0.00,VWS V14.01,2013-07-23 10:09:00,
2013-07-23 05:10:00,65.3,63.2,29.74,SW,227,1.1,3.4,93,0.00,,,0.00,0.00,VWS V14.01,2013-07-23 10:10:00,
2013-07-23 05:12:00,65.2,63.1,29.74,SW,231,6.9,6.9,93,0.00,,,0.00,0.00,VWS V14.01,2013-07-23 10:12:00,
2013-07-23 05:14:00,65.3,63.2,29.75,SW,231,4.6,4.6,93,0.00,,,0.00,0.00,VWS V14.01,2013-07-23 10:14:00,
2013-07-23 05:15:00,65.3,63.2,29.74,SW,235,3.4,8.1,93,0.00,,,0.00,0.00,VWS V14.01,2013-07-23 10:15:00,
2013-07-23 05:17:00,65.3,63.2,29.74,WSW,242,5.8,6.9,93,0.00,,,0.00,0.00,VWS V14.01,2013-07-23 10:17:00,
2013-07-23 05:18:00,65.3,63.2,29.75,SW,233,6.9,6.9,93,0.00,,,0.00,0.00,VWS V14.01,2013-07-23 10:18:00,
2013-07-23 05:19:00,65.3,63.2,29.75,WSW,254,5.8,6.9,93,0.00,,,0.00,0.00,VWS V14.01,2013-07-23 10:19:00,
2013-07-23 05:20:00,65.3,63.2,29.75,WSW,241,6.9,6.9,93,0.00,,,0.00,0.00,VWS V14.01,2013-07-23 10:20:00,
2013-07-23 05:21:00,65.3,63.2,29.75,WSW,243,5.8,6.9,93,0.00,,,0.00,0.00,VWS V14.01,2013-07-23 10:21:00,
2013-07-23 05:23:00,65.3,63.2,29.75,WSW,247,3.4,4.6,93,0.00,,,0.00,0.00,VWS V14.01,2013-07-23 10:23:00,
2013-07-23 05:24:00,65.3,63.2,29.75,WSW,253,4.6,8.1,93,0.00,,,0.00,0.00,VWS V14.01,2013-07-23 10:24:00,
2013-07-23 05:25:00,65.3,63.2,29.75,WSW,253,5.8,6.9,93,0.00,,,0.00,0.00,VWS V14.01,2013-07-23 10:25:00,
2013-07-23 05:26:00,65.3,63.2,29.75,WSW,253,5.8,5.8,93,0.00,,,0.00,0.00,VWS V14.01,2013-07-23 10:26:00,
2013-07-23 05:27:00,65.4,63.3,29.75,WSW,251,8.1,9.2,93,0.00,,,0.00,0.00,VWS V14.01,2013-07-23 10:27:00,
2013-07-23 05:28:00,65.4,63.3,29.75,West,267,4.6,10.3,93,0.00,,,0.00,0.00,VWS V14.01,2013-07-23 10:28:00,
2013-07-23 05:31:00,65.6,63.5,29.75,WSW,245,6.9,6.9,93,0.00,,,0.00,0.00,VWS V14.01,2013-07-23 10:31:00,
2013-07-23 05:33:00,65.6,63.5,29.75,WSW,237,9.2,9.2,93,0.00,,,0.00,0.00,VWS V14.01,2013-07-23 10:33:00,
2013-07-23 05:34:00,65.6,63.5,29.75,WSW,247,13.8,13.8,93,0.00,,,0.00,0.00,VWS V14.01,2013-07-23 10:34:00,
2013-07-23 05:36:00,65.6,63.5,29.76,SW,233,6.9,9.2,93,0.00,,,0.00,0.00,VWS V14.01,2013-07-23 10:36:00,
2013-07-23 05:38:00,65.7,63.6,29.76,WSW,258,5.8,6.9,93,0.00,,,0.00,0.00,VWS V14.01,2013-07-23 10:38:00,
2013-07-23 05:39:00,65.8,63.7,29.76,WSW,242,6.9,10.3,93,0.00,,,0.00,0.00,VWS V14.01,2013-07-23 10:39:00,
2013-07-23 05:41:00,65.8,63.7,29.76,WSW,242,9.2,9.2,93,0.00,,,0.00,0.00,VWS V14.01,2013-07-23 10:41:00,
2013-07-23 05:42:00,65.8,63.7,29.76,WSW,255,5.8,9.2,93,0.00,,,0.00,0.00,VWS V14.01,2013-07-23 10:42:00,
2013-07-23 05:44:00,65.8,63.7,29.76,WSW,243,6.9,8.1,93,0.00,,,0.00,0.00,VWS V14.01,2013-07-23 10:44:00,
2013-07-23 05:45:00,65.8,63.7,29.76,WSW,251,4.6,8.1,93,0.00,,,0.00,0.00,VWS V14.01,2013-07-23 10:45:00,
2013-07-23 05:46:00,65.8,63.7,29.76,SW,233,5.8,6.9,93,0.00,,,0.00,0.00,VWS V14.01,2013-07-23 10:46:00,
2013-07-23 05:47:00,65.8,63.7,29.76,WSW,241,3.4,6.9,93,0.00,,,0.00,0.00,VWS V14.01,2013-07-23 10:47:00,
2013-07-23 05:48:00,65.8,63.7,29.76,WSW,243,3.4,6.9,93,0.00,,,0.00,5.00,VWS V14.01,2013-07-23 10:48:00,
2013-07-23 05:49:00,65.8,63.7,29.76,WSW,242,4.6,4.6,93,0.00,,,0.00,5.00,VWS V14.01,2013-07-23 10:49:00,
2013-07-23 05:51:00,65.8,63.7,29.76,WSW,248,8.1,8.1,93,0.00,,,0.00,5.00,VWS V14.01,2013-07-23 10:51:00,
2013-07-23 05:52:00,65.8,63.7,29.76,WSW,245,5.8,5.8,93,0.00,,,0.00,5.00,VWS V14.01,2013-07-23 10:52:00,
2013-07-23 05:53:00,65.8,63.4,29.76,WSW,248,5.8,5.8,92,0.00,,,0.00,7.00,VWS V14.01,2013-07-23 10:53:00,
2013-07-23 05:54:00,65.8,63.7,29.76,SW,214,4.6,5.8,93,0.00,,,0.00,7.00,VWS V14.01,2013-07-23 10:54:00,
2013-07-23 05:55:00,65.8,63.4,29.76,WSW,238,6.9,6.9,92,0.00,,,0.00,7.00,VWS V14.01,2013-07-23 10:55:00,
2013-07-23 05:56:00,65.7,63.6,29.76,WSW,238,5.8,5.8,93,0.00,,,0.00,7.00,VWS V14.01,2013-07-23 10:56:00,
2013-07-23 05:57:00,65.8,63.7,29.76,SW,232,8.1,9.2,93,0.00,,,0.00,9.00,VWS V14.01,2013-07-23 10:57:00,
2013-07-23 06:00:00,65.7,63.6,29.76,WSW,245,6.9,8.1,93,0.00,,,0.00,11.00,VWS V14.01,2013-07-23 11:00:00,
2013-07-23 06:01:00,65.8,63.7,29.76,WSW,249,5.8,6.9,93,0.00,,,0.00,12.00,VWS V14.01,2013-07-23 11:01:00,
2013-07-23 06:03:00,65.8,63.7,29.76,SW,235,4.6,4.6,93,0.00,,,0.00,14.00,VWS V14.01,2013-07-23 11:03:00,
2013-07-23 06:05:00,65.8,63.7,29.76,WSW,245,5.8,5.8,93,0.00,,,0.00,16.00,VWS V14.01,2013-07-23 11:05:00,
2013-07-23 06:06:00,65.9,63.8,29.77,WSW,248,5.8,6.9,93,0.00,,,0.00,18.00,VWS V14.01,2013-07-23 11:06:00,
2013-07-23 06:08:00,65.9,63.8,29.77,WSW,256,8.1,8.1,93,0.00,,,0.00,21.00,VWS V14.01,2013-07-23 11:08:00,
2013-07-23 06:11:00,66.0,63.6,29.76,West,262,4.6,4.6,92,0.00,,,0.00,25.00,VWS V14.01,2013-07-23 11:11:00,
2013-07-23 06:12:00,66.0,63.6,29.76,West,270,6.9,8.1,92,0.00,,,0.00,25.00,VWS V14.01,2013-07-23 11:12:00,
2013-07-23 06:13:00,66.0,63.6,29.76,WSW,253,6.9,6.9,92,0.00,,,0.00,21.00,VWS V14.01,2013-07-23 11:13:00,
2013-07-23 06:16:00,66.1,63.7,29.76,WSW,258,4.6,4.6,92,0.00,,,0.00,26.00,VWS V14.01,2013-07-23 11:16:00,
2013-07-23 06:17:00,66.1,63.7,29.77,West,262,3.4,6.9,92,0.00,,,0.00,28.00,VWS V14.01,2013-07-23 11:17:00,
2013-07-23 06:18:00,66.1,63.7,29.77,WSW,255,6.9,8.1,92,0.00,,,0.00,33.00,VWS V14.01,2013-07-23 11:18:00,
2013-07-23 06:21:00,66.3,63.9,29.77,WSW,252,5.8,9.2,92,0.00,,,0.00,63.00,VWS V14.01,2013-07-23 11:21:00,
2013-07-23 06:22:00,66.4,64.0,29.77,West,263,8.1,11.5,92,0.00,,,0.00,60.00,VWS V14.01,2013-07-23 11:22:00,
2013-07-23 06:23:00,66.4,64.0,29.77,WSW,244,8.1,9.2,92,0.00,,,0.00,53.00,VWS V14.01,2013-07-23 11:23:00,
2013-07-23 06:24:00,66.4,64.0,29.77,West,262,5.8,10.3,92,0.00,,,0.00,53.00,VWS V14.01,2013-07-23 11:24:00,
2013-07-23 06:27:00,66.5,63.8,29.77,West,266,5.8,5.8,91,0.00,,,0.00,77.00,VWS V14.01,2013-07-23 11:27:00,
2013-07-23 06:29:00,66.5,63.8,29.77,West,271,4.6,4.6,91,0.00,,,0.00,77.00,VWS V14.01,2013-07-23 11:29:00,
2013-07-23 06:30:00,66.6,63.9,29.77,West,273,4.6,8.1,91,0.00,,,0.00,63.00,VWS V14.01,2013-07-23 11:30:00,
2013-07-23 06:32:00,66.6,63.9,29.77,West,268,6.9,8.1,91,0.00,,,0.00,39.00,VWS V14.01,2013-07-23 11:32:00,
2013-07-23 06:33:00,66.6,63.9,29.77,WSW,249,6.9,6.9,91,0.00,,,0.00,46.00,VWS V14.01,2013-07-23 11:33:00,
2013-07-23 06:34:00,66.6,63.9,29.77,SW,235,8.1,8.1,91,0.00,,,0.00,65.00,VWS V14.01,2013-07-23 11:34:00,
2013-07-23 06:35:00,66.6,63.9,29.77,WSW,249,5.8,8.1,91,0.00,,,0.00,65.00,VWS V14.01,2013-07-23 11:35:00,
2013-07-23 06:37:00,66.7,64.0,29.77,WSW,245,6.9,9.2,91,0.00,,,0.00,90.00,VWS V14.01,2013-07-23 11:37:00,
2013-07-23 06:39:00,66.7,64.0,29.77,West,262,5.8,6.9,91,0.00,,,0.00,102.00,VWS V14.01,2013-07-23 11:39:00,
2013-07-23 06:41:00,66.7,64.0,29.77,West,267,4.6,5.8,91,0.00,,,0.00,111.00,VWS V14.01,2013-07-23 11:41:00,
2013-07-23 06:42:00,66.7,64.0,29.77,West,262,4.6,5.8,91,0.00,,,0.00,121.00,VWS V14.01,2013-07-23 11:42:00,
2013-07-23 06:43:00,66.7,64.0,29.77,West,263,6.9,6.9,91,0.00,,,0.00,125.00,VWS V14.01,2013-07-23 11:43:00,
2013-07-23 06:44:00,66.8,64.1,29.77,West,261,4.6,5.8,91,0.00,,,0.00,128.00,VWS V14.01,2013-07-23 11:44:00,
2013-07-23 06:45:00,66.8,64.1,29.77,West,269,6.9,8.1,91,0.00,,,0.00,132.00,VWS V14.01,2013-07-23 11:45:00,
2013-07-23 06:46:00,66.8,64.1,29.77,West,262,5.8,6.9,91,0.00,,,0.00,134.00,VWS V14.01,2013-07-23 11:46:00,
2013-07-23 06:48:00,66.9,64.5,29.77,WSW,251,3.4,3.4,92,0.00,,,0.00,125.00,VWS V14.01,2013-07-23 11:48:00,
2013-07-23 06:49:00,67.0,64.6,29.77,WSW,251,5.8,5.8,92,0.00,,,0.00,148.00,VWS V14.01,2013-07-23 11:49:00,
2013-07-23 06:51:00,67.2,64.8,29.77,West,260,4.6,6.9,92,0.00,,,0.00,155.00,VWS V14.01,2013-07-23 11:51:00,
2013-07-23 06:52:00,67.3,64.6,29.77,WSW,254,6.9,6.9,91,0.00,,,0.00,163.00,VWS V14.01,2013-07-23 11:52:00,
2013-07-23 06:54:00,67.4,64.7,29.77,West,261,5.8,5.8,91,0.00,,,0.00,179.00,VWS V14.01,2013-07-23 11:54:00,
2013-07-23 06:57:00,67.7,65.0,29.77,West,259,5.8,8.1,91,0.00,,,0.00,185.00,VWS V14.01,2013-07-23 11:57:00,
2013-07-23 06:59:00,67.9,65.2,29.77,WSW,257,5.8,6.9,91,0.00,,,0.00,202.00,VWS V14.01,2013-07-23 11:59:00,
2013-07-23 07:02:00,68.2,65.2,29.77,WNW,283,4.6,8.1,90,0.00,,,0.00,243.00,VWS V14.01,2013-07-23 12:02:00,
2013-07-23 07:03:00,68.3,65.3,29.77,WSW,255,4.6,8.1,90,0.00,,,0.00,243.00,VWS V14.01,2013-07-23 12:03:00,
2013-07-23 07:04:00,68.4,65.4,29.77,West,260,5.8,5.8,90,0.00,,,0.00,248.00,VWS V14.01,2013-07-23 12:04:00,
2013-07-23 07:05:00,68.5,65.5,29.77,West,279,6.9,6.9,90,0.00,,,0.00,248.00,VWS V14.01,2013-07-23 12:05:00,
2013-07-23 07:08:00,68.9,65.8,29.77,West,263,6.9,8.1,90,0.00,,,0.00,227.00,VWS V14.01,2013-07-23 12:08:00,
2013-07-23 07:09:00,69.0,65.9,29.77,West,266,8.1,10.3,90,0.00,,,0.00,202.00,VWS V14.01,2013-07-23 12:09:00,
2013-07-23 07:10:00,69.1,66.1,29.77,West,274,8.1,8.1,90,0.00,,,0.00,65.00,VWS V14.01,2013-07-23 12:10:00,
2013-07-23 07:11:00,69.1,65.7,29.77,West,265,11.5,11.5,89,0.00,,,0.00,65.00,VWS V14.01,2013-07-23 12:11:00,
2013-07-23 07:13:00,69.1,65.7,29.77,West,268,5.8,5.8,89,0.00,,,0.00,77.00,VWS V14.01,2013-07-23 12:13:00,
2013-07-23 07:15:00,69.1,65.7,29.77,WSW,246,8.1,8.1,89,0.00,,,0.00,109.00,VWS V14.01,2013-07-23 12:15:00,
2013-07-23 07:16:00,69.1,65.7,29.77,West,261,5.8,6.9,89,0.00,,,0.00,65.00,VWS V14.01,2013-07-23 12:16:00,
2013-07-23 07:17:00,69.1,65.7,29.77,WNW,285,9.2,9.2,89,0.00,,,0.00,63.00,VWS V14.01,2013-07-23 12:17:00,
2013-07-23 07:18:00,69.1,65.7,29.77,West,278,2.3,4.6,89,0.00,,,0.00,69.00,VWS V14.01,2013-07-23 12:18:00,
2013-07-23 07:20:00,69.1,65.7,29.77,West,264,4.6,8.1,89,0.00,,,0.00,107.00,VWS V14.01,2013-07-23 12:20:00,
2013-07-23 07:21:00,69.2,65.8,29.77,West,263,6.9,6.9,89,0.00,,,0.00,246.00,VWS V14.01,2013-07-23 12:21:00,
2013-07-23 07:22:00,69.2,65.8,29.77,West,272,8.1,8.1,89,0.00,,,0.00,248.00,VWS V14.01,2013-07-23 12:22:00,
2013-07-23 07:24:00,69.3,65.9,29.77,SW,235,8.1,9.2,89,0.00,,,0.00,243.00,VWS V14.01,2013-07-23 12:24:00,
2013-07-23 07:25:00,69.4,66.0,29.77,West,268,6.9,9.2,89,0.00,,,0.00,107.00,VWS V14.01,2013-07-23 12:25:00,
2013-07-23 07:26:00,69.4,66.0,29.77,West,260,5.8,6.9,89,0.00,,,0.00,107.00,VWS V14.01,2013-07-23 12:26:00,
2013-07-23 07:27:00,69.5,66.1,29.77,WSW,249,5.8,8.1,89,0.00,,,0.00,107.00,VWS V14.01,2013-07-23 12:27:00,
2013-07-23 07:28:00,69.5,66.1,29.77,West,259,6.9,6.9,89,0.00,,,0.00,107.00,VWS V14.01,2013-07-23 12:28:00,
2013-07-23 07:29:00,69.7,66.3,29.77,WSW,240,2.3,5.8,89,0.00,,,0.00,149.00,VWS V14.01,2013-07-23 12:29:00,
2013-07-23 07:30:00,69.7,66.3,29.77,WSW,248,6.9,6.9,89,0.00,,,0.00,148.00,VWS V14.01,2013-07-23 12:30:00,
2013-07-23 07:32:00,69.8,66.4,29.77,WSW,253,9.2,9.2,89,0.00,,,0.00,141.00,VWS V14.01,2013-07-23 12:32:00,
2013-07-23 07:33:00,69.8,66.4,29.77,West,260,8.1,9.2,89,0.00,,,0.00,141.00,VWS V14.01,2013-07-23 12:33:00,
2013-07-23 07:35:00,70.0,66.3,29.77,WSW,253,6.9,8.1,88,0.00,,,0.00,130.00,VWS V14.01,2013-07-23 12:35:00,
2013-07-23 07:37:00,70.0,66.3,29.77,SW,235,6.9,6.9,88,0.00,,,0.00,113.00,VWS V14.01,2013-07-23 12:37:00,
2013-07-23 07:38:00,70.0,66.3,29.77,West,264,3.4,8.1,88,0.00,,,0.00,113.00,VWS V14.01,2013-07-23 12:38:00,
2013-07-23 07:39:00,70.0,66.3,29.77,West,261,8.1,8.1,88,0.00,,,0.00,134.00,VWS V14.01,2013-07-23 12:39:00,
2013-07-23 07:41:00,70.0,66.3,29.77,WNW,288,10.3,10.3,88,0.00,,,0.00,190.00,VWS V14.01,2013-07-23 12:41:00,
2013-07-23 07:43:00,70.0,66.3,29.77,West,271,4.6,6.9,88,0.00,,,0.00,146.00,VWS V14.01,2013-07-23 12:43:00,
2013-07-23 07:44:00,70.0,66.3,29.77,WSW,247,5.8,8.1,88,0.00,,,0.00,137.00,VWS V14.01,2013-07-23 12:44:00,
2013-07-23 07:48:00,70.1,66.4,29.77,West,266,6.9,6.9,88,0.00,,,0.00,134.00,VWS V14.01,2013-07-23 12:48:00,
2013-07-23 07:49:00,70.0,66.3,29.77,West,279,11.5,11.5,88,0.00,,,0.00,134.00,VWS V14.01,2013-07-23 12:49:00,
2013-07-23 07:50:00,70.0,66.0,29.77,NW,304,8.1,8.1,87,0.00,,,0.00,105.00,VWS V14.01,2013-07-23 12:50:00,
2013-07-23 07:53:00,69.9,66.2,29.77,WSW,242,8.1,9.2,88,0.00,,,0.00,98.00,VWS V14.01,2013-07-23 12:53:00,
2013-07-23 07:55:00,69.9,66.2,29.77,West,274,6.9,6.9,88,0.00,,,0.00,98.00,VWS V14.01,2013-07-23 12:55:00,
2013-07-23 07:56:00,70.0,66.3,29.77,West,270,3.4,6.9,88,0.00,,,0.00,169.00,VWS V14.01,2013-07-23 12:56:00,
2013-07-23 07:58:00,70.2,66.2,29.77,West,278,6.9,11.5,87,0.00,,,0.00,381.00,VWS V14.01,2013-07-23 12:58:00,
2013-07-23 08:00:00,70.3,66.2,29.77,West,262,8.1,11.5,87,0.00,,,0.00,380.00,VWS V14.01,2013-07-23 13:00:00,
2013-07-23 08:01:00,70.3,66.2,29.77,West,280,4.6,11.5,87,0.00,,,0.00,183.00,VWS V14.01,2013-07-23 13:01:00,
2013-07-23 08:02:00,70.4,66.3,29.77,WSW,255,9.2,10.3,87,0.00,,,0.00,183.00,VWS V14.01,2013-07-23 13:02:00,
2013-07-23 08:04:00,70.6,66.2,29.77,WNW,301,8.1,8.1,86,0.00,,,0.00,220.00,VWS V14.01,2013-07-23 13:04:00,
2013-07-23 08:06:00,70.8,66.4,29.77,WNW,297,4.6,8.1,86,0.00,,,0.00,364.00,VWS V14.01,2013-07-23 13:06:00,
2013-07-23 08:07:00,70.8,66.4,29.77,WNW,299,11.5,11.5,86,0.00,,,0.00,367.00,VWS V14.01,2013-07-23 13:07:00,
2013-07-23 08:09:00,71.1,66.7,29.77,West,274,9.2,9.2,86,0.00,,,0.00,383.00,VWS V14.01,2013-07-23 13:09:00,
2013-07-23 08:11:00,71.4,66.7,29.77,WNW,292,4.6,10.3,85,0.00,,,0.00,390.00,VWS V14.01,2013-07-23 13:11:00,
2013-07-23 08:12:00,71.5,66.8,29.77,WNW,283,4.6,4.6,85,0.00,,,0.00,396.00,VWS V14.01,2013-07-23 13:12:00,
2013-07-23 08:16:00,72.0,66.2,29.77,NW,314,10.3,10.3,82,0.00,,,0.00,408.00,VWS V14.01,2013-07-23 13:16:00,
2013-07-23 08:17:00,71.9,66.1,29.77,WNW,293,9.2,10.3,82,0.00,,,0.00,413.00,VWS V14.01,2013-07-23 13:17:00,
2013-07-23 08:19:00,72.0,66.2,29.77,NW,311,6.9,6.9,82,0.00,,,0.00,418.00,VWS V14.01,2013-07-23 13:19:00,
2013-07-23 08:22:00,72.2,66.1,29.77,WNW,289,9.2,10.3,81,0.00,,,0.00,422.00,VWS V14.01,2013-07-23 13:22:00,
2013-07-23 08:23:00,72.3,66.2,29.77,WNW,292,9.2,13.8,81,0.00,,,0.00,425.00,VWS V14.01,2013-07-23 13:23:00,
2013-07-23 08:24:00,72.2,65.7,29.77,WNW,297,8.1,8.1,80,0.00,,,0.00,425.00,VWS V14.01,2013-07-23 13:24:00,
2013-07-23 08:27:00,72.3,65.8,29.77,WNW,297,11.5,12.6,80,0.00,,,0.00,436.00,VWS V14.01,2013-07-23 13:27:00,
2013-07-23 08:28:00,72.3,65.8,29.77,WNW,283,10.3,11.5,80,0.00,,,0.00,441.00,VWS V14.01,2013-07-23 13:28:00,
2013-07-23 08:31:00,72.2,65.7,29.77,West,280,8.1,8.1,80,0.00,,,0.00,454.00,VWS V14.01,2013-07-23 13:31:00,
2013-07-23 08:33:00,72.4,65.9,29.77,NW,315,4.6,8.1,80,0.00,,,0.00,457.00,VWS V14.01,2013-07-23 13:33:00,
2013-07-23 08:34:00,72.4,66.2,29.77,WNW,287,5.8,9.2,81,0.00,,,0.00,427.00,VWS V14.01,2013-07-23 13:34:00,
2013-07-23 08:37:00,72.8,66.3,29.78,WNW,303,12.6,14.9,80,0.00,,,0.00,471.00,VWS V14.01,2013-07-23 13:37:00,
2013-07-23 08:39:00,72.8,66.3,29.78,WNW,284,10.3,10.3,80,0.00,,,0.00,475.00,VWS V14.01,2013-07-23 13:39:00,
2013-07-23 08:41:00,73.0,66.5,29.78,West,274,9.2,13.8,80,0.00,,,0.00,483.00,VWS V14.01,2013-07-23 13:41:00,
2013-07-23 08:42:00,73.1,66.6,29.77,NW,316,4.6,10.3,80,0.00,,,0.00,485.00,VWS V14.01,2013-07-23 13:42:00,
2013-07-23 08:44:00,73.1,66.2,29.77,NW,311,13.8,13.8,79,0.00,,,0.00,490.00,VWS V14.01,2013-07-23 13:44:00,
2013-07-23 08:45:00,73.1,66.2,29.77,West,261,9.2,10.3,79,0.00,,,0.00,497.00,VWS V14.01,2013-07-23 13:45:00,
2013-07-23 08:46:00,73.1,66.2,29.77,WNW,287,10.3,10.3,79,0.00,,,0.00,499.00,VWS V14.01,2013-07-23 13:46:00,
2013-07-23 08:50:00,73.5,67.3,29.77,West,274,3.4,6.9,81,0.00,,,0.00,513.00,VWS V14.01,2013-07-23 13:50:00,
2013-07-23 08:51:00,73.7,67.2,29.77,WNW,294,11.5,12.6,80,0.00,,,0.00,517.00,VWS V14.01,2013-07-23 13:51:00,
2013-07-23 08:52:00,73.9,67.0,29.78,NW,310,10.3,13.8,79,0.00,,,0.00,520.00,VWS V14.01,2013-07-23 13:52:00,
2013-07-23 08:55:00,73.9,66.6,29.78,NW,311,5.8,8.1,78,0.00,,,0.00,526.00,VWS V14.01,2013-07-23 13:55:00,
2013-07-23 08:56:00,73.9,66.6,29.78,WNW,284,11.5,12.6,78,0.00,,,0.00,529.00,VWS V14.01,2013-07-23 13:56:00,
2013-07-23 08:57:00,73.9,66.6,29.78,WNW,301,4.6,9.2,78,0.00,,,0.00,531.00,VWS V14.01,2013-07-23 13:57:00,
2013-07-23 09:00:00,73.9,66.2,29.78,WNW,297,5.8,11.5,77,0.00,,,0.00,543.00,VWS V14.01,2013-07-23 14:00:00,
2013-07-23 09:01:00,73.9,66.2,29.78,WNW,296,11.5,11.5,77,0.00,,,0.00,547.00,VWS V14.01,2013-07-23 14:01:00,
2013-07-23 09:02:00,73.9,66.2,29.78,WNW,297,9.2,10.3,77,0.00,,,0.00,547.00,VWS V14.01,2013-07-23 14:02:00,
2013-07-23 09:05:00,74.3,66.6,29.77,WNW,295,6.9,9.2,77,0.00,,,0.00,559.00,VWS V14.01,2013-07-23 14:05:00,
2013-07-23 09:07:00,74.6,67.3,29.77,NW,324,9.2,9.2,78,0.00,,,0.00,563.00,VWS V14.01,2013-07-23 14:07:00,
2013-07-23 09:08:00,74.6,66.5,29.77,NNW,334,5.8,9.2,76,0.00,,,0.00,566.00,VWS V14.01,2013-07-23 14:08:00,
2013-07-23 09:12:00,74.7,66.6,29.77,WNW,300,6.9,6.9,76,0.00,,,0.00,577.00,VWS V14.01,2013-07-23 14:12:00,
2013-07-23 09:13:00,74.7,66.6,29.77,WNW,297,8.1,8.1,76,0.00,,,0.00,578.00,VWS V14.01,2013-07-23 14:13:00,
2013-07-23 09:14:00,74.8,67.1,29.77,NW,310,6.9,6.9,77,0.00,,,0.00,582.00,VWS V14.01,2013-07-23 14:14:00,
2013-07-23 09:16:00,75.1,66.6,29.77,WNW,292,6.9,11.5,75,0.00,,,0.00,587.00,VWS V14.01,2013-07-23 14:16:00,
2013-07-23 09:17:00,75.1,66.6,29.77,WNW,292,4.6,9.2,75,0.00,,,0.00,589.00,VWS V14.01,2013-07-23 14:17:00,
2013-07-23 09:18:00,75.0,66.2,29.77,West,269,6.9,11.5,74,0.00,,,0.00,596.00,VWS V14.01,2013-07-23 14:18:00,
2013-07-23 09:19:00,75.0,66.2,29.77,WNW,292,8.1,10.3,74,0.00,,,0.00,599.00,VWS V14.01,2013-07-23 14:19:00,
2013-07-23 09:29:00,75.8,66.5,29.77,West,269,5.8,12.6,73,0.00,,,0.00,622.00,VWS V14.01,2013-07-23 14:29:00,
2013-07-23 09:34:00,75.7,66.8,29.77,NW,307,10.3,10.3,74,0.00,,,0.00,640.00,VWS V14.01,2013-07-23 14:34:00,
2013-07-23 09:35:00,75.7,66.8,29.77,WSW,243,4.6,6.9,74,0.00,,,0.00,645.00,VWS V14.01,2013-07-23 14:35:00,
2013-07-23 09:36:00,75.7,66.8,29.77,West,271,10.3,10.3,74,0.00,,,0.00,649.00,VWS V14.01,2013-07-23 14:36:00,
2013-07-23 09:37:00,75.9,67.4,29.77,West,278,11.5,11.5,75,0.00,,,0.00,650.00,VWS V14.01,2013-07-23 14:37:00,
2013-07-23 09:38:00,76.2,67.3,29.78,WNW,297,5.8,11.5,74,0.00,,,0.00,654.00,VWS V14.01,2013-07-23 14:38:00,
2013-07-23 09:39:00,76.4,67.5,29.78,WNW,292,5.8,8.1,74,0.00,,,0.00,657.00,VWS V14.01,2013-07-23 14:39:00,
2013-07-23 09:40:00,76.4,67.5,29.78,West,275,8.1,8.1,74,0.00,,,0.00,657.00,VWS V14.01,2013-07-23 14:40:00,
2013-07-23 09:41:00,76.4,67.5,29.78,WNW,291,11.5,11.5,74,0.00,,,0.00,661.00,VWS V14.01,2013-07-23 14:41:00,
2013-07-23 09:45:00,76.4,66.7,29.78,West,277,12.6,16.1,72,0.00,,,0.00,663.00,VWS V14.01,2013-07-23 14:45:00,
2013-07-23 09:46:00,76.4,66.7,29.78,West,277,12.6,16.1,72,0.00,,,0.00,663.00,VWS V14.01,2013-07-23 14:46:00,
2013-07-23 09:48:00,76.3,66.2,29.78,NW,317,10.3,10.3,71,0.00,,,0.00,682.00,VWS V14.01,2013-07-23 14:48:00,
2013-07-23 09:50:00,76.6,66.9,29.77,NW,319,11.5,16.1,72,0.00,,,0.00,682.00,VWS V14.01,2013-07-23 14:50:00,
2013-07-23 09:52:00,76.5,66.4,29.78,West,271,11.5,11.5,71,0.00,,,0.00,691.00,VWS V14.01,2013-07-23 14:52:00,
2013-07-23 09:53:00,76.4,66.7,29.78,West,279,10.3,11.5,72,0.00,,,0.00,668.00,VWS V14.01,2013-07-23 14:53:00,
2013-07-23 09:54:00,76.4,67.1,29.78,West,279,6.9,11.5,73,0.00,,,0.00,694.00,VWS V14.01,2013-07-23 14:54:00,
2013-07-23 09:56:00,76.7,66.6,29.78,NNW,335,10.3,11.5,71,0.00,,,0.00,707.00,VWS V14.01,2013-07-23 14:56:00,
2013-07-23 09:57:00,76.8,67.1,29.77,WNW,283,9.2,9.2,72,0.00,,,0.00,707.00,VWS V14.01,2013-07-23 14:57:00,
2013-07-23 09:58:00,76.9,67.6,29.78,West,274,6.9,10.3,73,0.00,,,0.00,707.00,VWS V14.01,2013-07-23 14:58:00,
2013-07-23 09:59:00,77.1,67.4,29.78,West,276,6.9,6.9,72,0.00,,,0.00,710.00,VWS V14.01,2013-07-23 14:59:00,
2013-07-23 10:01:00,77.0,67.3,29.78,WNW,303,10.3,11.5,72,0.00,,,0.00,715.00,VWS V14.01,2013-07-23 15:01:00,
2013-07-23 10:02:00,77.1,67.0,29.78,WNW,296,10.3,13.8,71,0.00,,,0.00,705.00,VWS V14.01,2013-07-23 15:02:00,
2013-07-23 10:03:00,77.1,67.0,29.78,NW,310,10.3,10.3,71,0.00,,,0.00,715.00,VWS V14.01,2013-07-23 15:03:00,
2013-07-23 10:04:00,77.2,67.1,29.78,West,275,8.1,11.5,71,0.00,,,0.00,731.00,VWS V14.01,2013-07-23 15:04:00,
2013-07-23 10:07:00,77.0,66.9,29.78,WNW,292,12.6,13.8,71,0.00,,,0.00,738.00,VWS V14.01,2013-07-23 15:07:00,
2013-07-23 10:08:00,77.0,67.3,29.78,WNW,294,10.3,10.3,72,0.00,,,0.00,738.00,VWS V14.01,2013-07-23 15:08:00,
2013-07-23 10:09:00,76.6,66.9,29.78,WNW,294,5.8,6.9,72,0.00,,,0.00,773.00,VWS V14.01,2013-07-23 15:09:00,
2013-07-23 10:12:00,76.8,67.1,29.78,NW,304,15.1,15.1,72,0.00,,,0.00,766.00,VWS V14.01,2013-07-23 15:12:00,
2013-07-23 10:13:00,76.7,67.0,29.78,NW,315,11.5,13.8,72,0.00,,,0.00,766.00,VWS V14.01,2013-07-23 15:13:00,
2013-07-23 10:14:00,76.7,67.0,29.78,NW,312,8.1,11.5,72,0.00,,,0.00,657.00,VWS V14.01,2013-07-23 15:14:00,
2013-07-23 10:15:00,76.7,67.0,29.78,WNW,300,11.5,14.9,72,0.00,,,0.00,710.00,VWS V14.01,2013-07-23 15:15:00,
2013-07-23 10:16:00,76.7,67.4,29.78,WNW,296,13.8,13.8,73,0.00,,,0.00,738.00,VWS V14.01,2013-07-23 15:16:00,
2013-07-23 10:18:00,76.7,67.0,29.79,NW,313,10.3,13.8,72,0.00,,,0.00,784.00,VWS V14.01,2013-07-23 15:18:00,
2013-07-23 10:19:00,76.6,66.9,29.79,NW,317,5.8,10.3,72,0.00,,,0.00,745.00,VWS V14.01,2013-07-23 15:19:00,
2013-07-23 10:20:00,76.7,67.4,29.79,WNW,292,6.9,10.3,73,0.00,,,0.00,738.00,VWS V14.01,2013-07-23 15:20:00,
2013-07-23 10:21:00,76.8,67.9,29.79,WNW,288,4.6,6.9,74,0.00,,,0.00,814.00,VWS V14.01,2013-07-23 15:21:00,
2013-07-23 10:23:00,77.5,68.2,29.79,WNW,298,10.3,11.5,73,0.00,,,0.00,795.00,VWS V14.01,2013-07-23 15:23:00,
2013-07-23 10:25:00,77.6,67.5,29.79,NW,309,11.5,12.6,71,0.00,,,0.00,817.00,VWS V14.01,2013-07-23 15:25:00,
2013-07-23 10:26:00,77.7,67.6,29.79,WNW,296,10.3,10.3,71,0.00,,,0.00,817.00,VWS V14.01,2013-07-23 15:26:00,
2013-07-23 10:27:00,77.6,67.5,29.79,NW,304,8.1,8.1,71,0.00,,,0.00,860.00,VWS V14.01,2013-07-23 15:27:00,
2013-07-23 10:29:00,77.7,67.6,29.79,WNW,294,10.3,13.8,71,0.00,,,0.00,860.00,VWS V14.01,2013-07-23 15:29:00,
2013-07-23 10:30:00,77.7,68.0,29.79,NNW,338,3.4,11.5,72,0.00,,,0.00,831.00,VWS V14.01,2013-07-23 15:30:00,
2013-07-23 10:31:00,77.6,67.9,29.79,WNW,296,6.9,9.2,72,0.00,,,0.00,287.00,VWS V14.01,2013-07-23 15:31:00,
2013-07-23 10:32:00,77.5,67.8,29.79,WNW,293,6.9,6.9,72,0.00,,,0.00,287.00,VWS V14.01,2013-07-23 15:32:00,
2013-07-23 10:34:00,77.6,68.3,29.79,NW,315,4.6,8.1,73,0.00,,,0.00,666.00,VWS V14.01,2013-07-23 15:34:00,
2013-07-23 10:36:00,77.8,68.1,29.79,NW,309,4.6,4.6,72,0.00,,,0.00,824.00,VWS V14.01,2013-07-23 15:36:00,
2013-07-23 10:37:00,77.7,67.6,29.79,NW,311,5.8,5.8,71,0.00,,,0.00,788.00,VWS V14.01,2013-07-23 15:37:00,
2013-07-23 10:38:00,77.4,68.1,29.79,West,262,10.3,10.3,73,0.00,,,0.00,770.00,VWS V14.01,2013-07-23 15:38:00,
2013-07-23 10:39:00,77.5,68.2,29.79,WNW,285,11.5,11.5,73,0.00,,,0.00,751.00,VWS V14.01,2013-07-23 15:39:00,
2013-07-23 10:40:00,77.8,68.1,29.79,WNW,282,8.1,10.3,72,0.00,,,0.00,807.00,VWS V14.01,2013-07-23 15:40:00,
2013-07-23 10:41:00,78.2,68.8,29.79,NW,316,10.3,10.3,73,0.00,,,0.00,800.00,VWS V14.01,2013-07-23 15:41:00,
2013-07-23 10:42:00,78.4,68.2,29.79,NW,313,10.3,12.6,71,0.00,,,0.00,765.00,VWS V14.01,2013-07-23 15:42:00,
2013-07-23 10:43:00,78.5,67.9,29.79,NW,304,8.1,10.3,70,0.00,,,0.00,793.00,VWS V14.01,2013-07-23 15:43:00,
2013-07-23 10:44:00,78.5,67.9,29.79,NNW,336,4.6,9.2,70,0.00,,,0.00,784.00,VWS V14.01,2013-07-23 15:44:00,
2013-07-23 10:45:00,78.5,68.3,29.79,NW,320,6.9,9.2,71,0.00,,,0.00,715.00,VWS V14.01,2013-07-23 15:45:00,
2013-07-23 10:46:00,78.5,67.9,29.79,NW,305,6.9,9.2,70,0.00,,,0.00,682.00,VWS V14.01,2013-07-23 15:46:00,
2013-07-23 10:48:00,78.7,68.5,29.79,NNW,329,4.6,9.2,71,0.00,,,0.00,664.00,VWS V14.01,2013-07-23 15:48:00,
2013-07-23 10:49:00,78.7,68.1,29.79,NW,317,5.8,8.1,70,0.00,,,0.00,759.00,VWS V14.01,2013-07-23 15:49:00,
2013-07-23 10:51:00,78.5,68.3,29.79,NW,317,8.1,8.1,71,0.00,,,0.00,805.00,VWS V14.01,2013-07-23 15:51:00,
2013-07-23 10:52:00,78.2,67.2,29.79,WNW,286,8.1,8.1,69,0.00,,,0.00,840.00,VWS V14.01,2013-07-23 15:52:00,
2013-07-23 10:54:00,78.4,68.2,29.79,WNW,292,8.1,9.2,71,0.00,,,0.00,837.00,VWS V14.01,2013-07-23 15:54:00,
2013-07-23 10:55:00,78.4,68.2,29.79,WNW,286,10.3,10.3,71,0.00,,,0.00,837.00,VWS V14.01,2013-07-23 15:55:00,
2013-07-23 10:56:00,78.5,68.3,29.79,NW,307,10.3,10.3,71,0.00,,,0.00,904.00,VWS V14.01,2013-07-23 15:56:00,
2013-07-23 10:57:00,78.6,68.4,29.80,NNW,332,10.3,10.3,71,0.00,,,0.00,904.00,VWS V14.01,2013-07-23 15:57:00,
2013-07-23 11:00:00,78.9,69.5,29.79,WNW,300,8.1,8.1,73,0.00,,,0.00,919.00,VWS V14.01,2013-07-23 16:00:00,
2013-07-23 11:01:00,79.2,68.6,29.79,WNW,287,6.9,10.3,70,0.00,,,0.00,933.00,VWS V14.01,2013-07-23 16:01:00,
2013-07-23 11:02:00,79.5,69.3,29.79,WNW,302,9.2,11.5,71,0.00,,,0.00,928.00,VWS V14.01,2013-07-23 16:02:00,
2013-07-23 11:06:00,80.0,68.9,29.80,WNW,286,3.4,5.8,69,0.00,,,0.00,891.00,VWS V14.01,2013-07-23 16:06:00,
2013-07-23 11:07:00,79.8,68.3,29.80,NNE,19,4.6,5.8,68,0.00,,,0.00,891.00,VWS V14.01,2013-07-23 16:07:00,
2013-07-23 11:08:00,79.7,68.2,29.80,North,349,5.8,8.1,68,0.00,,,0.00,494.00,VWS V14.01,2013-07-23 16:08:00,
2013-07-23 11:11:00,79.6,68.5,29.80,NW,316,6.9,6.9,69,0.00,,,0.00,316.00,VWS V14.01,2013-07-23 16:11:00,
2013-07-23 11:12:00,79.4,68.3,29.80,WNW,293,5.8,11.5,69,0.00,,,0.00,304.00,VWS V14.01,2013-07-23 16:12:00,
2013-07-23 11:13:00,79.3,68.3,29.80,WNW,298,8.1,8.1,69,0.00,,,0.00,355.00,VWS V14.01,2013-07-23 16:13:00,
2013-07-23 11:15:00,79.1,68.9,29.80,WNW,298,3.4,10.3,71,0.00,,,0.00,355.00,VWS V14.01,2013-07-23 16:15:00,
2013-07-23 11:16:00,79.2,69.0,29.80,NNW,333,4.6,4.6,71,0.00,,,0.00,355.00,VWS V14.01,2013-07-23 16:16:00,
2013-07-23 11:18:00,79.0,68.0,29.80,NW,306,6.9,9.2,69,0.00,,,0.00,348.00,VWS V14.01,2013-07-23 16:18:00,
2013-07-23 11:19:00,79.0,68.0,29.80,WNW,302,9.2,9.2,69,0.00,,,0.00,320.00,VWS V14.01,2013-07-23 16:19:00,
2013-07-23 11:21:00,78.5,67.5,29.80,WNW,292,9.2,10.3,69,0.00,,,0.00,248.00,VWS V14.01,2013-07-23 16:21:00,
2013-07-23 11:29:00,78.4,69.0,29.79,NNW,338,6.9,10.3,73,0.00,,,0.00,506.00,VWS V14.01,2013-07-23 16:29:00,
2013-07-23 11:30:00,78.1,67.5,29.80,NNW,338,11.5,12.6,70,0.00,,,0.00,381.00,VWS V14.01,2013-07-23 16:30:00,
2013-07-23 11:33:00,78.8,67.8,29.79,WNW,296,8.1,8.1,69,0.00,,,0.00,462.00,VWS V14.01,2013-07-23 16:33:00,
2013-07-23 11:35:00,78.6,68.8,29.79,NW,311,1.1,10.3,72,0.00,,,0.00,397.00,VWS V14.01,2013-07-23 16:35:00,
2013-07-23 11:36:00,78.7,68.9,29.78,NW,315,5.8,5.8,72,0.00,,,0.00,383.00,VWS V14.01,2013-07-23 16:36:00,
2013-07-23 11:39:00,78.7,68.9,29.79,WNW,298,8.1,11.5,72,0.00,,,0.00,394.00,VWS V14.01,2013-07-23 16:39:00,
2013-07-23 11:40:00,78.7,68.1,29.79,NW,309,6.9,11.5,70,0.00,,,0.00,432.00,VWS V14.01,2013-07-23 16:40:00,
2013-07-23 11:41:00,78.7,68.5,29.79,NNW,328,5.8,9.2,71,0.00,,,0.00,432.00,VWS V14.01,2013-07-23 16:41:00,
2013-07-23 11:44:00,78.6,68.8,29.79,North,355,8.1,10.3,72,0.00,,,0.00,487.00,VWS V14.01,2013-07-23 16:44:00,
2013-07-23 11:46:00,78.3,68.1,29.79,NNW,333,6.9,9.2,71,0.00,,,0.00,406.00,VWS V14.01,2013-07-23 16:46:00,
2013-07-23 11:47:00,78.7,69.3,29.79,NNW,339,3.4,4.6,73,0.00,,,0.00,1100.00,VWS V14.01,2013-07-23 16:47:00,
2013-07-23 11:49:00,78.9,69.1,29.79,WNW,300,5.8,5.8,72,0.00,,,0.00,1100.00,VWS V14.01,2013-07-23 16:49:00,
2013-07-23 11:51:00,79.8,68.7,29.79,NW,307,9.2,13.8,69,0.00,,,0.00,475.00,VWS V14.01,2013-07-23 16:51:00,
2013-07-23 11:53:00,79.7,68.6,29.79,WNW,294,4.6,6.9,69,0.00,,,0.00,475.00,VWS V14.01,2013-07-23 16:53:00,
2013-07-23 11:54:00,79.9,68.8,29.79,NNW,331,4.6,8.1,69,0.00,,,0.00,475.00,VWS V14.01,2013-07-23 16:54:00,
2013-07-23 11:55:00,80.0,68.9,29.79,NW,319,6.9,8.1,69,0.00,,,0.00,475.00,VWS V14.01,2013-07-23 16:55:00,
2013-07-23 11:57:00,80.2,69.1,29.80,NW,315,9.2,9.2,69,0.00,,,0.00,397.00,VWS V14.01,2013-07-23 16:57:00,
2013-07-23 11:58:00,80.2,68.7,29.79,NW,321,6.9,9.2,68,0.00,,,0.00,339.00,VWS V14.01,2013-07-23 16:58:00,
2013-07-23 12:00:00,79.9,68.8,29.79,WNW,300,8.1,10.3,69,0.00,,,0.00,346.00,VWS V14.01,2013-07-23 17:00:00,
2013-07-23 12:03:00,80.0,69.3,29.79,NW,325,4.6,9.2,70,0.00,,,0.00,1121.00,VWS V14.01,2013-07-23 17:03:00,
2013-07-23 12:05:00,80.3,68.8,29.80,NW,306,8.1,12.6,68,0.00,,,0.00,301.00,VWS V14.01,2013-07-23 17:05:00,
2013-07-23 12:06:00,80.2,69.1,29.80,NW,322,9.2,12.6,69,0.00,,,0.00,309.00,VWS V14.01,2013-07-23 17:06:00,
2013-07-23 12:08:00,79.6,68.5,29.80,WNW,282,5.8,9.2,69,0.00,,,0.00,397.00,VWS V14.01,2013-07-23 17:08:00,
2013-07-23 12:09:00,79.7,69.1,29.80,North,5,5.8,8.1,70,0.00,,,0.00,863.00,VWS V14.01,2013-07-23 17:09:00,
2013-07-23 12:10:00,79.8,69.2,29.80,NNE,15,6.9,8.1,70,0.00,,,0.00,863.00,VWS V14.01,2013-07-23 17:10:00,
2013-07-23 12:11:00,80.0,69.8,29.80,NW,308,11.5,11.5,71,0.00,,,0.00,930.00,VWS V14.01,2013-07-23 17:11:00,
2013-07-23 12:12:00,80.3,70.9,29.80,NW,309,6.9,8.1,73,0.00,,,0.00,930.00,VWS V14.01,2013-07-23 17:12:00,
2013-07-23 12:13:00,80.4,68.9,29.80,NNW,340,9.2,9.2,68,0.00,,,0.00,272.00,VWS V14.01,2013-07-23 17:13:00,
2013-07-23 12:15:00,80.2,69.1,29.80,North,360,3.4,8.1,69,0.00,,,0.00,264.00,VWS V14.01,2013-07-23 17:15:00,
2013-07-23 12:18:00,79.6,68.5,29.80,NNW,333,5.8,6.9,69,0.00,,,0.00,306.00,VWS V14.01,2013-07-23 17:18:00,
2013-07-23 12:19:00,79.3,68.7,29.80,WNW,293,5.8,9.2,70,0.00,,,0.00,436.00,VWS V14.01,2013-07-23 17:19:00,
2013-07-23 12:20:00,79.3,68.7,29.80,West,278,6.9,6.9,70,0.00,,,0.00,436.00,VWS V14.01,2013-07-23 17:20:00,
2013-07-23 12:21:00,79.2,69.0,29.80,WNW,301,5.8,8.1,71,0.00,,,0.00,487.00,VWS V14.01,2013-07-23 17:21:00,
2013-07-23 12:23:00,79.3,69.5,29.80,WNW,293,11.5,11.5,72,0.00,,,0.00,327.00,VWS V14.01,2013-07-23 17:23:00,
2013-07-23 12:24:00,79.5,68.9,29.80,NW,322,10.3,10.3,70,0.00,,,0.00,309.00,VWS V14.01,2013-07-23 17:24:00,
2013-07-23 12:25:00,79.5,68.9,29.80,WNW,296,8.1,10.3,70,0.00,,,0.00,376.00,VWS V14.01,2013-07-23 17:25:00,
2013-07-23 12:26:00,79.6,69.4,29.80,WNW,300,9.2,11.5,71,0.00,,,0.00,1081.00,VWS V14.01,2013-07-23 17:26:00,
2013-07-23 12:29:00,80.3,70.1,29.80,NW,306,4.6,6.9,71,0.00,,,0.00,1081.00,VWS V14.01,2013-07-23 17:29:00,
2013-07-23 12:30:00,80.5,69.8,29.80,NW,308,10.3,11.5,70,0.00,,,0.00,1081.00,VWS V14.01,2013-07-23 17:30:00,
2013-07-23 12:31:00,80.6,69.1,29.80,North,9,10.3,10.3,68,0.00,,,0.00,1113.00,VWS V14.01,2013-07-23 17:31:00,
2013-07-23 12:34:00,81.8,69.8,29.80,NW,323,10.3,10.3,67,0.00,,,0.00,875.00,VWS V14.01,2013-07-23 17:34:00,
2013-07-23 12:36:00,81.7,69.2,29.79,WNW,300,4.6,10.3,66,0.00,,,0.00,1004.00,VWS V14.01,2013-07-23 17:36:00,
2013-07-23 12:37:00,81.6,69.2,29.80,North,355,3.4,4.6,66,0.00,,,0.00,1013.00,VWS V14.01,2013-07-23 17:37:00,
2013-07-23 12:38:00,81.6,70.4,29.79,WNW,296,11.5,11.5,69,0.00,,,0.00,1013.00,VWS V14.01,2013-07-23 17:38:00,
2013-07-23 12:40:00,82.1,70.5,29.79,NW,323,6.9,11.5,68,0.00,,,0.00,926.00,VWS V14.01,2013-07-23 17:40:00,
2013-07-23 12:42:00,82.6,70.1,29.80,North,9,3.4,9.2,66,0.00,,,0.00,1030.00,VWS V14.01,2013-07-23 17:42:00,
2013-07-23 12:43:00,82.3,68.9,29.80,NNE,21,4.6,5.8,64,0.00,,,0.00,193.00,VWS V14.01,2013-07-23 17:43:00,
2013-07-23 12:45:00,81.2,68.8,29.80,ENE,57,11.5,11.5,66,0.00,,,0.00,171.00,VWS V14.01,2013-07-23 17:45:00,
2013-07-23 12:47:00,79.9,68.4,29.80,ENE,57,9.2,9.2,68,0.00,,,0.00,183.00,VWS V14.01,2013-07-23 17:47:00,
2013-07-23 12:48:00,79.7,68.2,29.80,North,5,5.8,9.2,68,0.00,,,0.00,183.00,VWS V14.01,2013-07-23 17:48:00,
2013-07-23 12:49:00,79.1,68.1,29.80,North,9,4.6,6.9,69,0.00,,,0.00,181.00,VWS V14.01,2013-07-23 17:49:00,
2013-07-23 12:51:00,78.4,68.2,29.80,ENE,62,4.6,4.6,71,0.00,,,0.00,230.00,VWS V14.01,2013-07-23 17:51:00,
2013-07-23 12:54:00,78.0,68.2,29.80,North,355,3.4,10.3,72,0.00,,,0.00,288.00,VWS V14.01,2013-07-23 17:54:00,
2013-07-23 12:55:00,78.1,68.3,29.80,North,5,4.6,6.9,72,0.00,,,0.00,295.00,VWS V14.01,2013-07-23 17:55:00,
2013-07-23 12:56:00,78.1,68.3,29.80,North,5,1.1,6.9,72,0.00,,,0.00,315.00,VWS V14.01,2013-07-23 17:56:00,
2013-07-23 12:57:00,78.2,68.4,29.79,NE,38,0.0,2.3,72,0.00,,,0.00,315.00,VWS V14.01,2013-07-23 17:57:00,
2013-07-23 12:59:00,78.5,68.3,29.80,North,11,3.4,6.9,71,0.00,,,0.00,459.00,VWS V14.01,2013-07-23 17:59:00,
2013-07-23 13:02:00,79.3,68.7,29.80,NNW,338,1.1,1.1,70,0.00,,,0.00,315.00,VWS V14.01,2013-07-23 18:02:00,
2013-07-23 13:05:00,78.9,67.9,29.80,NNE,30,2.3,5.8,69,0.00,,,0.00,269.00,VWS V14.01,2013-07-23 18:05:00,
2013-07-23 13:07:00,78.6,68.4,29.80,NNE,17,1.1,3.4,71,0.00,,,0.00,220.00,VWS V14.01,2013-07-23 18:07:00,
2013-07-23 13:08:00,78.5,69.1,29.80,North,5,2.3,6.9,73,0.00,,,0.00,220.00,VWS V14.01,2013-07-23 18:08:00,
2013-07-23 13:09:00,78.5,68.3,29.80,NE,53,0.0,3.4,71,0.00,,,0.00,213.00,VWS V14.01,2013-07-23 18:09:00,
2013-07-23 13:11:00,78.0,67.8,29.80,NNE,15,3.4,4.6,71,0.00,,,0.00,297.00,VWS V14.01,2013-07-23 18:11:00,
2013-07-23 13:14:00,78.7,69.7,29.80,NE,49,3.4,3.4,74,0.00,,,0.00,297.00,VWS V14.01,2013-07-23 18:14:00,
2013-07-23 13:16:00,80.0,69.3,29.80,NE,38,4.6,4.6,70,0.00,,,0.00,909.00,VWS V14.01,2013-07-23 18:16:00,
2013-07-23 13:19:00,80.8,69.7,29.80,ENE,62,3.4,8.1,69,0.00,,,0.00,881.00,VWS V14.01,2013-07-23 18:19:00,
2013-07-23 13:20:00,80.8,68.8,29.80,North,355,5.8,9.2,67,0.00,,,0.00,309.00,VWS V14.01,2013-07-23 18:20:00,
2013-07-23 13:23:00,80.3,68.8,29.80,NNE,27,6.9,6.9,68,0.00,,,0.00,309.00,VWS V14.01,2013-07-23 18:23:00,
2013-07-23 13:25:00,80.1,68.6,29.79,ENE,65,8.1,8.1,68,0.00,,,0.00,369.00,VWS V14.01,2013-07-23 18:25:00,
2013-07-23 13:27:00,79.7,68.2,29.79,NNE,21,1.1,3.4,68,0.00,,,0.00,369.00,VWS V14.01,2013-07-23 18:27:00,
2013-07-23 13:29:00,79.7,68.2,29.79,ENE,60,4.6,4.6,68,0.00,,,0.00,452.00,VWS V14.01,2013-07-23 18:29:00,
2013-07-23 13:31:00,79.6,68.1,29.79,East,84,5.8,10.3,68,0.00,,,0.00,452.00,VWS V14.01,2013-07-23 18:31:00,
2013-07-23 13:32:00,79.6,68.5,29.79,NNE,17,3.4,9.2,69,0.00,,,0.00,536.00,VWS V14.01,2013-07-23 18:32:00,
2013-07-23 13:35:00,79.6,68.5,29.79,North,9,6.9,6.9,69,0.00,,,0.00,239.00,VWS V14.01,2013-07-23 18:35:00,
2013-07-23 13:36:00,79.5,68.4,29.79,NE,36,6.9,10.3,69,0.00,,,0.00,246.00,VWS V14.01,2013-07-23 18:36:00,
2013-07-23 13:37:00,79.1,67.2,29.80,NNE,15,9.2,12.6,67,0.00,,,0.00,350.00,VWS V14.01,2013-07-23 18:37:00,
2013-07-23 13:41:00,78.4,67.4,29.80,NW,315,5.8,5.8,69,0.00,,,0.00,311.00,VWS V14.01,2013-07-23 18:41:00,
2013-07-23 13:43:00,78.6,67.6,29.80,NNE,33,2.3,2.3,69,0.00,,,0.00,408.00,VWS V14.01,2013-07-23 18:43:00,
2013-07-23 13:46:00,79.0,68.0,29.80,NNW,329,1.1,4.6,69,0.00,,,0.00,452.00,VWS V14.01,2013-07-23 18:46:00,
2013-07-23 13:47:00,79.2,67.7,29.80,North,360,3.4,3.4,68,0.00,,,0.00,383.00,VWS V14.01,2013-07-23 18:47:00,
2013-07-23 13:51:00,79.5,68.9,29.80,North,355,8.1,8.1,70,0.00,,,0.00,329.00,VWS V14.01,2013-07-23 18:51:00,
2013-07-23 13:52:00,79.6,69.0,29.80,NNW,347,5.8,13.8,70,0.00,,,0.00,329.00,VWS V14.01,2013-07-23 18:52:00,
2013-07-23 13:56:00,81.2,68.3,29.80,NNW,333,6.9,9.2,65,0.00,,,0.00,939.00,VWS V14.01,2013-07-23 18:56:00,
2013-07-23 13:57:00,81.2,69.2,29.80,NNW,343,9.2,9.2,67,0.00,,,0.00,860.00,VWS V14.01,2013-07-23 18:57:00,
2013-07-23 14:01:00,81.4,68.5,29.79,NE,40,8.1,8.1,65,0.00,,,0.00,311.00,VWS V14.01,2013-07-23 19:01:00,
2013-07-23 14:02:00,81.2,68.8,29.79,ENE,71,3.4,8.1,66,0.00,,,0.00,304.00,VWS V14.01,2013-07-23 19:02:00,
2013-07-23 14:03:00,80.6,67.8,29.79,NNE,13,6.9,12.6,65,0.00,,,0.00,304.00,VWS V14.01,2013-07-23 19:03:00,
2013-07-23 14:06:00,78.8,66.9,29.80,NNE,31,9.2,9.2,67,0.00,,,0.00,183.00,VWS V14.01,2013-07-23 19:06:00,
2013-07-23 14:07:00,78.6,66.7,29.80,NE,56,5.8,9.2,67,0.00,,,0.00,165.00,VWS V14.01,2013-07-23 19:07:00,
2013-07-23 14:08:00,78.3,66.9,29.80,NNE,32,5.8,9.2,68,0.00,,,0.00,162.00,VWS V14.01,2013-07-23 19:08:00,
2013-07-23 14:12:00,77.2,66.7,29.80,NNW,340,1.1,5.8,70,0.00,,,0.00,188.00,VWS V14.01,2013-07-23 19:12:00,
2013-07-23 14:14:00,77.1,66.6,29.81,NNE,17,8.1,10.3,70,0.00,,,0.00,304.00,VWS V14.01,2013-07-23 19:14:00,
2013-07-23 14:15:00,77.3,67.2,29.80,NE,47,0.0,1.1,71,0.00,,,0.00,304.00,VWS V14.01,2013-07-23 19:15:00,
2013-07-23 14:17:00,78.3,68.1,29.80,ENE,62,4.6,5.8,71,0.00,,,0.00,304.00,VWS V14.01,2013-07-23 19:17:00,
2013-07-23 14:19:00,79.0,68.0,29.80,NNW,333,9.2,9.2,69,0.00,,,0.00,466.00,VWS V14.01,2013-07-23 19:19:00,
2013-07-23 14:21:00,79.1,67.2,29.80,NE,56,6.9,11.5,67,0.00,,,0.00,466.00,VWS V14.01,2013-07-23 19:21:00,
2013-07-23 14:23:00,79.1,67.2,29.80,NNE,28,3.4,8.1,67,0.00,,,0.00,294.00,VWS V14.01,2013-07-23 19:23:00,
2013-07-23 14:25:00,78.8,67.8,29.80,NNW,345,1.1,6.9,69,0.00,,,0.00,278.00,VWS V14.01,2013-07-23 19:25:00,
2013-07-23 14:26:00,78.7,67.3,29.80,NNE,28,5.8,8.1,68,0.00,,,0.00,285.00,VWS V14.01,2013-07-23 19:26:00,
2013-07-23 14:28:00,77.9,66.5,29.80,NNE,16,6.9,9.2,68,0.00,,,0.00,369.00,VWS V14.01,2013-07-23 19:28:00,
2013-07-23 14:30:00,77.7,66.7,29.80,ESE,116,1.1,6.9,69,0.00,,,0.00,350.00,VWS V14.01,2013-07-23 19:30:00,
2013-07-23 14:32:00,77.8,67.7,29.80,NNE,33,8.1,10.3,71,0.00,,,0.00,350.00,VWS V14.01,2013-07-23 19:32:00,
2013-07-23 14:33:00,78.4,67.4,29.80,NE,39,1.1,6.9,69,0.00,,,0.00,828.00,VWS V14.01,2013-07-23 19:33:00,
2013-07-23 14:36:00,79.5,68.0,29.80,North,355,5.8,5.8,68,0.00,,,0.00,573.00,VWS V14.01,2013-07-23 19:36:00,
2013-07-23 14:37:00,79.6,68.1,29.80,NNW,327,1.1,8.1,68,0.00,,,0.00,573.00,VWS V14.01,2013-07-23 19:37:00,
2013-07-23 14:39:00,79.8,67.4,29.80,NW,317,4.6,4.6,66,0.00,,,0.00,573.00,VWS V14.01,2013-07-23 19:39:00,
2013-07-23 14:40:00,79.9,68.4,29.80,NNW,335,4.6,10.3,68,0.00,,,0.00,765.00,VWS V14.01,2013-07-23 19:40:00,
2013-07-23 14:42:00,80.0,67.6,29.80,NNE,12,1.1,8.1,66,0.00,,,0.00,765.00,VWS V14.01,2013-07-23 19:42:00,
2013-07-23 14:43:00,79.9,68.0,29.80,NNE,17,6.9,6.9,67,0.00,,,0.00,765.00,VWS V14.01,2013-07-23 19:43:00,
2013-07-23 14:44:00,79.8,67.9,29.80,ENE,78,2.3,6.9,67,0.00,,,0.00,935.00,VWS V14.01,2013-07-23 19:44:00,
2013-07-23 14:45:00,79.8,67.4,29.80,North,360,6.9,6.9,66,0.00,,,0.00,935.00,VWS V14.01,2013-07-23 19:45:00,
2013-07-23 14:48:00,79.9,68.0,29.80,NNE,17,9.2,9.2,67,0.00,,,0.00,935.00,VWS V14.01,2013-07-23 19:48:00,
2013-07-23 14:49:00,79.7,67.8,29.81,NNE,14,5.8,5.8,67,0.00,,,0.00,339.00,VWS V14.01,2013-07-23 19:49:00,
2013-07-23 14:50:00,79.6,67.7,29.80,NNE,16,3.4,4.6,67,0.00,,,0.00,490.00,VWS V14.01,2013-07-23 19:50:00,
2013-07-23 14:51:00,79.7,68.2,29.80,North,11,4.6,13.8,68,0.00,,,0.00,520.00,VWS V14.01,2013-07-23 19:51:00,
2013-07-23 14:53:00,79.7,66.9,29.81,North,5,6.9,12.6,65,0.00,,,0.00,281.00,VWS V14.01,2013-07-23 19:53:00,
2013-07-23 14:54:00,79.3,66.5,29.80,North,360,9.2,12.6,65,0.00,,,0.00,290.00,VWS V14.01,2013-07-23 19:54:00,
2013-07-23 14:57:00,78.8,66.9,29.80,NW,321,6.9,10.3,67,0.00,,,0.00,301.00,VWS V14.01,2013-07-23 19:57:00,
2013-07-23 14:58:00,78.7,67.7,29.80,ENE,76,8.1,10.3,69,0.00,,,0.00,346.00,VWS V14.01,2013-07-23 19:58:00,
2013-07-23 15:00:00,78.5,67.1,29.80,NNE,27,2.3,8.1,68,0.00,,,0.00,396.00,VWS V14.01,2013-07-23 20:00:00,
2013-07-23 15:03:00,79.2,67.3,29.80,NNW,329,6.9,10.3,67,0.00,,,0.00,396.00,VWS V14.01,2013-07-23 20:03:00,
2013-07-23 15:04:00,79.3,67.4,29.80,NNW,337,6.9,12.6,67,0.00,,,0.00,341.00,VWS V14.01,2013-07-23 20:04:00,
2013-07-23 15:06:00,79.5,67.6,29.80,North,349,8.1,8.1,67,0.00,,,0.00,294.00,VWS V14.01,2013-07-23 20:06:00,
2013-07-23 15:09:00,79.1,66.8,29.80,WNW,300,5.8,5.8,66,0.00,,,0.00,281.00,VWS V14.01,2013-07-23 20:09:00,
2013-07-23 15:10:00,78.9,66.6,29.80,North,360,2.3,4.6,66,0.00,,,0.00,241.00,VWS V14.01,2013-07-23 20:10:00,
2013-07-23 15:12:00,78.9,67.4,29.80,North,360,4.6,9.2,68,0.00,,,0.00,188.00,VWS V14.01,2013-07-23 20:12:00,
2013-07-23 15:14:00,78.7,66.8,29.80,NNE,23,1.1,8.1,67,0.00,,,0.00,176.00,VWS V14.01,2013-07-23 20:14:00,
2013-07-23 15:15:00,78.6,66.7,29.80,NNE,13,3.4,8.1,67,0.00,,,0.00,258.00,VWS V14.01,2013-07-23 20:15:00,
2013-07-23 15:16:00,78.5,67.1,29.80,North,9,4.6,8.1,68,0.00,,,0.00,299.00,VWS V14.01,2013-07-23 20:16:00,
2013-07-23 15:17:00,78.4,66.1,29.80,NNW,342,3.4,6.9,66,0.00,,,0.00,299.00,VWS V14.01,2013-07-23 20:17:00,
2013-07-23 15:19:00,78.0,65.7,29.80,NNE,21,11.5,12.6,66,0.00,,,0.00,330.00,VWS V14.01,2013-07-23 20:19:00,
2013-07-23 15:21:00,77.9,66.5,29.80,NNE,32,5.8,5.8,68,0.00,,,0.00,327.00,VWS V14.01,2013-07-23 20:21:00,
2013-07-23 15:22:00,78.0,66.2,29.80,North,360,6.9,10.3,67,0.00,,,0.00,327.00,VWS V14.01,2013-07-23 20:22:00,
2013-07-23 15:25:00,78.6,66.7,29.80,NNW,336,4.6,9.2,67,0.00,,,0.00,629.00,VWS V14.01,2013-07-23 20:25:00,
2013-07-23 15:27:00,78.9,66.6,29.80,NE,45,5.8,10.3,66,0.00,,,0.00,306.00,VWS V14.01,2013-07-23 20:27:00,
2013-07-23 15:30:00,78.9,66.6,29.80,North,360,6.9,6.9,66,0.00,,,0.00,297.00,VWS V14.01,2013-07-23 20:30:00,
2013-07-23 15:32:00,78.7,66.8,29.80,NE,34,1.1,4.6,67,0.00,,,0.00,645.00,VWS V14.01,2013-07-23 20:32:00,
2013-07-23 15:33:00,78.7,66.0,29.81,NE,46,3.4,5.8,65,0.00,,,0.00,675.00,VWS V14.01,2013-07-23 20:33:00,
2013-07-23 15:35:00,78.8,65.6,29.80,NE,51,0.0,3.4,64,0.00,,,0.00,675.00,VWS V14.01,2013-07-23 20:35:00,
2013-07-23 15:37:00,78.8,66.1,29.81,NNE,28,3.4,4.6,65,0.00,,,0.00,663.00,VWS V14.01,2013-07-23 20:37:00,
2013-07-23 15:38:00,78.8,66.1,29.81,NW,320,1.1,5.8,65,0.00,,,0.00,663.00,VWS V14.01,2013-07-23 20:38:00,
2013-07-23 15:39:00,78.9,66.2,29.80,NNE,32,3.4,4.6,65,0.00,,,0.00,531.00,VWS V14.01,2013-07-23 20:39:00,
2013-07-23 15:40:00,78.7,66.0,29.80,NNE,32,2.3,3.4,65,0.00,,,0.00,531.00,VWS V14.01,2013-07-23 20:40:00,
2013-07-23 15:43:00,78.9,67.0,29.80,ENE,58,9.2,9.2,67,0.00,,,0.00,624.00,VWS V14.01,2013-07-23 20:43:00,
2013-07-23 15:44:00,78.9,65.7,29.80,ENE,63,9.2,9.2,64,0.00,,,0.00,563.00,VWS V14.01,2013-07-23 20:44:00,
2013-07-23 15:46:00,78.7,65.1,29.80,ENE,57,10.3,10.3,63,0.00,,,0.00,563.00,VWS V14.01,2013-07-23 20:46:00,
2013-07-23 15:48:00,78.2,65.9,29.80,NNE,17,6.9,12.6,66,0.00,,,0.00,443.00,VWS V14.01,2013-07-23 20:48:00,
2013-07-23 15:50:00,78.0,66.2,29.80,NNE,18,4.6,10.3,67,0.00,,,0.00,570.00,VWS V14.01,2013-07-23 20:50:00,
2013-07-23 15:52:00,77.8,65.5,29.81,East,97,11.5,14.9,66,0.00,,,0.00,554.00,VWS V14.01,2013-07-23 20:52:00,
2013-07-23 15:53:00,77.8,66.0,29.81,NNW,336,8.1,14.9,67,0.00,,,0.00,482.00,VWS V14.01,2013-07-23 20:53:00,
2013-07-23 15:56:00,77.2,65.0,29.81,NE,56,6.9,13.8,66,0.00,,,0.00,531.00,VWS V14.01,2013-07-23 20:56:00,
2013-07-23 15:57:00,77.2,65.4,29.81,ENE,73,2.3,2.3,67,0.00,,,0.00,585.00,VWS V14.01,2013-07-23 20:57:00,
2013-07-23 16:00:00,77.5,65.7,29.81,NNW,342,6.9,9.2,67,0.00,,,0.00,519.00,VWS V14.01,2013-07-23 21:00:00,
2013-07-23 16:01:00,77.3,65.9,29.81,ENE,58,3.4,6.9,68,0.00,,,0.00,519.00,VWS V14.01,2013-07-23 21:01:00,
2013-07-23 16:03:00,77.6,65.8,29.81,NNE,17,12.6,12.6,67,0.00,,,0.00,770.00,VWS V14.01,2013-07-23 21:03:00,
2013-07-23 16:04:00,77.7,65.9,29.81,NNE,14,4.6,12.6,67,0.00,,,0.00,770.00,VWS V14.01,2013-07-23 21:04:00,
2013-07-23 16:05:00,77.6,65.8,29.81,North,360,3.4,5.8,67,0.00,,,0.00,512.00,VWS V14.01,2013-07-23 21:05:00,
2013-07-23 16:06:00,77.7,65.4,29.81,North,355,6.9,11.5,66,0.00,,,0.00,557.00,VWS V14.01,2013-07-23 21:06:00,
2013-07-23 16:08:00,77.7,65.4,29.81,NNE,32,5.8,16.1,66,0.00,,,0.00,596.00,VWS V14.01,2013-07-23 21:08:00,
2013-07-23 16:09:00,77.7,65.9,29.81,East,90,5.8,8.1,67,0.00,,,0.00,596.00,VWS V14.01,2013-07-23 21:09:00,
2013-07-23 16:11:00,77.6,64.9,29.81,ENE,59,9.2,9.2,65,0.00,,,0.00,596.00,VWS V14.01,2013-07-23 21:11:00,
2013-07-23 16:12:00,77.6,65.3,29.81,NE,35,6.9,12.6,66,0.00,,,0.00,441.00,VWS V14.01,2013-07-23 21:12:00,
2013-07-23 16:14:00,77.3,64.6,29.81,NNE,17,4.6,4.6,65,0.00,,,0.00,473.00,VWS V14.01,2013-07-23 21:14:00,
2013-07-23 16:16:00,77.1,64.4,29.81,ENE,70,2.3,6.9,65,0.00,,,0.00,480.00,VWS V14.01,2013-07-23 21:16:00,
2013-07-23 16:17:00,77.1,64.9,29.81,NNE,28,0.0,8.1,66,0.00,,,0.00,415.00,VWS V14.01,2013-07-23 21:17:00,
2013-07-23 16:21:00,77.1,65.3,29.81,East,101,3.4,9.2,67,0.00,,,0.00,503.00,VWS V14.01,2013-07-23 21:21:00,
2013-07-23 16:22:00,77.1,64.9,29.81,North,355,2.3,4.6,66,0.00,,,0.00,429.00,VWS V14.01,2013-07-23 21:22:00,
2013-07-23 16:27:00,77.5,65.3,29.81,NNE,19,6.9,6.9,66,0.00,,,0.00,591.00,VWS V14.01,2013-07-23 21:27:00,
2013-07-23 16:28:00,77.5,65.3,29.81,ENE,78,3.4,6.9,66,0.00,,,0.00,591.00,VWS V14.01,2013-07-23 21:28:00,
2013-07-23 16:29:00,77.6,64.9,29.81,North,5,9.2,9.2,65,0.00,,,0.00,454.00,VWS V14.01,2013-07-23 21:29:00,
2013-07-23 16:33:00,76.7,64.9,29.81,North,355,6.9,8.1,67,0.00,,,0.00,318.00,VWS V14.01,2013-07-23 21:33:00,
2013-07-23 16:34:00,76.7,65.3,29.81,NE,38,3.4,8.1,68,0.00,,,0.00,364.00,VWS V14.01,2013-07-23 21:34:00,
2013-07-23 16:35:00,76.6,64.8,29.82,NE,53,0.0,4.6,67,0.00,,,0.00,403.00,VWS V14.01,2013-07-23 21:35:00,
2013-07-23 16:36:00,76.6,64.8,29.82,NE,46,6.9,8.1,67,0.00,,,0.00,415.00,VWS V14.01,2013-07-23 21:36:00,
2013-07-23 16:39:00,76.7,64.5,29.82,NNE,15,4.6,14.9,66,0.00,,,0.00,534.00,VWS V14.01,2013-07-23 21:39:00,
2013-07-23 16:40:00,76.8,65.0,29.82,ENE,61,2.3,9.2,67,0.00,,,0.00,545.00,VWS V14.01,2013-07-23 21:40:00,
2013-07-23 16:41:00,76.8,65.0,29.82,ENE,69,9.2,9.2,67,0.00,,,0.00,545.00,VWS V14.01,2013-07-23 21:41:00,
2013-07-23 16:45:00,76.9,65.1,29.82,ENE,61,12.6,12.6,67,0.00,,,0.00,536.00,VWS V14.01,2013-07-23 21:45:00,
2013-07-23 16:46:00,76.8,64.6,29.82,East,90,11.5,16.1,66,0.00,,,0.00,462.00,VWS V14.01,2013-07-23 21:46:00,
2013-07-23 16:47:00,76.7,64.5,29.82,East,87,10.3,11.5,66,0.00,,,0.00,480.00,VWS V14.01,2013-07-23 21:47:00,
2013-07-23 16:49:00,76.5,64.7,29.82,East,89,14.9,14.9,67,0.00,,,0.00,496.00,VWS V14.01,2013-07-23 21:49:00,
2013-07-23 16:51:00,76.1,64.4,29.82,SE,139,6.9,12.6,67,0.00,,,0.00,367.00,VWS V14.01,2013-07-23 21:51:00,
2013-07-23 16:52:00,76.0,64.7,29.82,NNE,30,11.5,11.5,68,0.00,,,0.00,367.00,VWS V14.01,2013-07-23 21:52:00,
2013-07-23 16:54:00,75.6,64.7,29.82,East,87,6.9,14.9,69,0.00,,,0.00,265.00,VWS V14.01,2013-07-23 21:54:00,
2013-07-23 16:56:00,75.1,64.2,29.82,East,82,8.1,13.8,69,0.00,,,0.00,339.00,VWS V14.01,2013-07-23 21:56:00,
2013-07-23 16:57:00,75.0,64.2,29.82,ENE,63,4.6,14.9,69,0.00,,,0.00,527.00,VWS V14.01,2013-07-23 21:57:00,
2013-07-23 16:59:00,75.2,64.3,29.82,NE,51,10.3,14.9,69,0.00,,,0.00,482.00,VWS V14.01,2013-07-23 21:59:00,
2013-07-23 17:00:00,75.2,64.3,29.82,ENE,65,5.8,14.9,69,0.00,,,0.00,482.00,VWS V14.01,2013-07-23 22:00:00,
2013-07-23 17:02:00,74.9,64.1,29.82,NE,51,2.3,6.9,69,0.00,,,0.00,369.00,VWS V14.01,2013-07-23 22:02:00,
2013-07-23 17:03:00,75.0,64.6,29.82,NNE,17,4.6,9.2,70,0.00,,,0.00,369.00,VWS V14.01,2013-07-23 22:03:00,
2013-07-23 17:05:00,74.9,64.1,29.82,NNE,27,5.8,13.8,69,0.00,,,0.00,571.00,VWS V14.01,2013-07-23 22:05:00,
2013-07-23 17:07:00,74.9,64.5,29.82,ENE,72,5.8,11.5,70,0.00,,,0.00,459.00,VWS V14.01,2013-07-23 22:07:00,
2013-07-23 17:08:00,74.9,64.5,29.82,NE,42,4.6,5.8,70,0.00,,,0.00,459.00,VWS V14.01,2013-07-23 22:08:00,
2013-07-23 17:10:00,75.0,64.2,29.82,NNE,24,10.3,13.8,69,0.00,,,0.00,353.00,VWS V14.01,2013-07-23 22:10:00,
2013-07-23 17:13:00,75.0,64.2,29.82,NNE,28,10.3,13.8,69,0.00,,,0.00,508.00,VWS V14.01,2013-07-23 22:13:00,
2013-07-23 17:15:00,74.8,63.5,29.82,NE,42,6.9,10.3,68,0.00,,,0.00,457.00,VWS V14.01,2013-07-23 22:15:00,
2013-07-23 17:16:00,74.7,63.9,29.82,ENE,59,0.0,8.1,69,0.00,,,0.00,513.00,VWS V14.01,2013-07-23 22:16:00,
2013-07-23 17:18:00,74.9,64.5,29.82,ENE,64,0.0,5.8,70,0.00,,,0.00,563.00,VWS V14.01,2013-07-23 22:18:00,
2013-07-23 17:20:00,75.4,65.3,29.83,ENE,78,9.2,9.2,71,0.00,,,0.00,550.00,VWS V14.01,2013-07-23 22:20:00,
2013-07-23 17:21:00,75.6,64.3,29.83,ENE,60,9.2,9.2,68,0.00,,,0.00,336.00,VWS V14.01,2013-07-23 22:21:00,
2013-07-23 17:22:00,75.5,64.2,29.83,NE,49,11.5,11.5,68,0.00,,,0.00,244.00,VWS V14.01,2013-07-23 22:22:00,
2013-07-23 17:24:00,74.9,63.6,29.83,ENE,76,1.1,14.9,68,0.00,,,0.00,155.00,VWS V14.01,2013-07-23 22:24:00,
2013-07-23 17:26:00,74.3,63.9,29.83,ENE,57,13.8,13.8,70,0.00,,,0.00,329.00,VWS V14.01,2013-07-23 22:26:00,
2013-07-23 17:27:00,74.2,63.8,29.83,ENE,70,4.6,13.8,70,0.00,,,0.00,329.00,VWS V14.01,2013-07-23 22:27:00,
2013-07-23 17:29:00,73.7,63.3,29.83,NE,39,10.3,10.3,70,0.00,,,0.00,294.00,VWS V14.01,2013-07-23 22:29:00,
2013-07-23 17:32:00,73.7,63.7,29.82,NE,53,3.4,11.5,71,0.00,,,0.00,515.00,VWS V14.01,2013-07-23 22:32:00,
2013-07-23 17:33:00,73.7,63.7,29.82,NNE,26,4.6,12.6,71,0.00,,,0.00,485.00,VWS V14.01,2013-07-23 22:33:00,
2013-07-23 17:35:00,74.1,63.7,29.82,ENE,57,9.2,9.2,70,0.00,,,0.00,394.00,VWS V14.01,2013-07-23 22:35:00,
2013-07-23 17:37:00,74.1,64.1,29.82,North,360,17.2,17.2,71,0.00,,,0.00,320.00,VWS V14.01,2013-07-23 22:37:00,
2013-07-23 17:38:00,74.0,63.6,29.82,NE,40,14.9,17.2,70,0.00,,,0.00,369.00,VWS V14.01,2013-07-23 22:38:00,
2013-07-23 17:40:00,73.6,63.2,29.82,East,100,10.3,10.3,70,0.00,,,0.00,253.00,VWS V14.01,2013-07-23 22:40:00,
2013-07-23 17:42:00,73.5,63.5,29.83,ENE,76,2.3,10.3,71,0.00,,,0.00,232.00,VWS V14.01,2013-07-23 22:42:00,
2013-07-23 17:43:00,73.4,63.0,29.83,ENE,75,4.6,5.8,70,0.00,,,0.00,229.00,VWS V14.01,2013-07-23 22:43:00,
2013-07-23 17:44:00,73.3,63.3,29.83,NE,46,3.4,12.6,71,0.00,,,0.00,229.00,VWS V14.01,2013-07-23 22:44:00,
2013-07-23 17:46:00,73.4,63.8,29.83,NNE,31,18.4,18.4,72,0.00,,,0.00,348.00,VWS V14.01,2013-07-23 22:46:00,
2013-07-23 17:48:00,73.4,63.4,29.83,North,5,10.3,13.8,71,0.00,,,0.00,362.00,VWS V14.01,2013-07-23 22:48:00,
2013-07-23 17:49:00,73.4,63.0,29.83,NNE,25,8.1,16.1,70,0.00,,,0.00,376.00,VWS V14.01,2013-07-23 22:49:00,
2013-07-23 17:51:00,73.2,62.8,29.83,ENE,61,11.5,13.8,70,0.00,,,0.00,287.00,VWS V14.01,2013-07-23 22:51:00,
2013-07-23 17:52:00,73.1,62.7,29.83,NNW,346,5.8,6.9,70,0.00,,,0.00,269.00,VWS V14.01,2013-07-23 22:52:00,
2013-07-23 17:53:00,73.1,62.7,29.83,NNE,15,2.3,6.9,70,0.00,,,0.00,269.00,VWS V14.01,2013-07-23 22:53:00,
2013-07-23 17:55:00,72.8,62.9,29.83,NNE,22,8.1,8.1,71,0.00,,,0.00,341.00,VWS V14.01,2013-07-23 22:55:00,
2013-07-23 17:56:00,72.8,62.9,29.83,ENE,77,0.0,10.3,71,0.00,,,0.00,200.00,VWS V14.01,2013-07-23 22:56:00,
2013-07-23 17:58:00,72.6,62.7,29.83,NE,50,5.8,11.5,71,0.00,,,0.00,153.00,VWS V14.01,2013-07-23 22:58:00,
2013-07-23 18:00:00,72.5,63.0,29.83,North,360,8.1,9.2,72,0.00,,,0.00,318.00,VWS V14.01,2013-07-23 23:00:00,
2013-07-23 18:01:00,72.5,63.0,29.83,ESE,111,9.2,16.1,72,0.00,,,0.00,369.00,VWS V14.01,2013-07-23 23:01:00,
2013-07-23 18:03:00,72.6,62.7,29.83,East,91,5.8,12.6,71,0.00,,,0.00,390.00,VWS V14.01,2013-07-23 23:03:00,
2013-07-23 18:04:00,72.6,62.7,29.83,NE,36,6.9,6.9,71,0.00,,,0.00,378.00,VWS V14.01,2013-07-23 23:04:00,
2013-07-23 18:05:00,72.7,62.8,29.83,ESE,104,11.5,20.7,71,0.00,,,0.00,336.00,VWS V14.01,2013-07-23 23:05:00,
2013-07-23 18:06:00,72.7,62.8,29.83,ENE,78,12.6,12.6,71,0.00,,,0.00,332.00,VWS V14.01,2013-07-23 23:06:00,
2013-07-23 18:08:00,72.5,62.2,29.83,ENE,57,5.8,11.5,70,0.00,,,0.00,353.00,VWS V14.01,2013-07-23 23:08:00,
2013-07-23 18:10:00,72.5,62.6,29.83,NE,36,6.9,11.5,71,0.00,,,0.00,357.00,VWS V14.01,2013-07-23 23:10:00,
2013-07-23 18:13:00,72.6,62.7,29.83,NNE,32,6.9,9.2,71,0.00,,,0.00,244.00,VWS V14.01,2013-07-23 23:13:00,
2013-07-23 18:14:00,72.5,63.0,29.84,NE,51,5.8,6.9,72,0.00,,,0.00,244.00,VWS V14.01,2013-07-23 23:14:00,
2013-07-23 18:16:00,72.2,62.3,29.84,NE,55,10.3,17.2,71,0.00,,,0.00,285.00,VWS V14.01,2013-07-23 23:16:00,
2013-07-23 18:17:00,72.1,62.2,29.84,ENE,71,3.4,19.5,71,0.00,,,0.00,360.00,VWS V14.01,2013-07-23 23:17:00,
2013-07-23 18:19:00,72.1,62.6,29.84,NE,55,8.1,12.6,72,0.00,,,0.00,380.00,VWS V14.01,2013-07-23 23:19:00,
2013-07-23 18:20:00,72.1,62.6,29.84,NE,38,4.6,16.1,72,0.00,,,0.00,367.00,VWS V14.01,2013-07-23 23:20:00,
2013-07-23 18:21:00,71.9,62.0,29.84,ENE,76,11.5,13.8,71,0.00,,,0.00,146.00,VWS V14.01,2013-07-23 23:21:00,
2013-07-23 18:22:00,71.7,62.2,29.84,ENE,62,16.1,17.2,72,0.00,,,0.00,139.00,VWS V14.01,2013-07-23 23:22:00,
2013-07-23 18:24:00,71.2,61.7,29.84,NE,48,11.5,11.5,72,0.00,,,0.00,142.00,VWS V14.01,2013-07-23 23:24:00,
2013-07-23 18:25:00,71.1,61.6,29.84,NE,53,4.6,11.5,72,0.00,,,0.00,144.00,VWS V14.01,2013-07-23 23:25:00,
2013-07-23 18:26:00,70.8,61.7,29.84,North,5,4.6,9.2,73,0.00,,,0.00,132.00,VWS V14.01,2013-07-23 23:26:00,
2013-07-23 18:27:00,70.7,61.6,29.84,ENE,58,5.8,16.1,73,0.00,,,0.00,111.00,VWS V14.01,2013-07-23 23:27:00,
2013-07-23 18:29:00,70.3,61.6,29.84,ENE,61,2.3,4.6,74,0.00,,,0.00,84.00,VWS V14.01,2013-07-23 23:29:00,
2013-07-23 18:31:00,70.0,61.0,29.84,NE,47,8.1,8.1,73,0.00,,,0.00,98.00,VWS V14.01,2013-07-23 23:31:00,
2013-07-23 18:32:00,70.0,61.3,29.84,NNE,30,10.3,11.5,74,0.00,,,0.00,120.00,VWS V14.01,2013-07-23 23:32:00,
2013-07-23 18:34:00,69.9,61.2,29.84,ESE,112,11.5,11.5,74,0.00,,,0.00,272.00,VWS V14.01,2013-07-23 23:34:00,
2013-07-23 18:35:00,69.9,61.2,29.84,ENE,63,9.2,11.5,74,0.00,,,0.00,272.00,VWS V14.01,2013-07-23 23:35:00,
2013-07-23 18:37:00,70.0,61.0,29.84,East,92,2.3,8.1,73,0.00,,,0.00,262.00,VWS V14.01,2013-07-23 23:37:00,
2013-07-23 18:39:00,70.0,61.0,29.84,ENE,59,10.3,13.8,73,0.00,,,0.00,253.00,VWS V14.01,2013-07-23 23:39:00,
2013-07-23 18:40:00,70.0,61.0,29.85,ENE,61,9.2,11.5,73,0.00,,,0.00,257.00,VWS V14.01,2013-07-23 23:40:00,
2013-07-23 18:41:00,70.0,61.0,29.85,NE,51,4.6,9.2,73,0.00,,,0.00,255.00,VWS V14.01,2013-07-23 23:41:00,
2013-07-23 18:43:00,70.1,61.0,29.85,NW,317,3.4,13.8,73,0.00,,,0.00,239.00,VWS V14.01,2013-07-23 23:43:00,
2013-07-23 18:45:00,70.1,61.0,29.85,NE,34,8.1,8.1,73,0.00,,,0.00,239.00,VWS V14.01,2013-07-23 23:45:00,
2013-07-23 18:46:00,70.0,61.0,29.85,NNE,26,6.9,10.3,73,0.00,,,0.00,230.00,VWS V14.01,2013-07-23 23:46:00,
2013-07-23 18:49:00,69.9,60.9,29.85,NNW,329,2.3,13.8,73,0.00,,,0.00,214.00,VWS V14.01,2013-07-23 23:49:00,
2013-07-23 18:50:00,69.9,61.2,29.85,ENE,58,8.1,13.8,74,0.00,,,0.00,214.00,VWS V14.01,2013-07-23 23:50:00,
2013-07-23 18:52:00,69.8,61.2,29.85,NNE,32,9.2,9.2,74,0.00,,,0.00,202.00,VWS V14.01,2013-07-23 23:52:00,
2013-07-23 18:54:00,69.7,60.7,29.85,ENE,61,4.6,14.9,73,0.00,,,0.00,188.00,VWS V14.01,2013-07-23 23:54:00,
2013-07-23 18:55:00,69.7,60.7,29.85,NE,39,8.1,12.6,73,0.00,,,0.00,193.00,VWS V14.01,2013-07-23 23:55:00,
2013-07-23 18:56:00,69.6,60.6,29.85,NE,52,3.4,16.1,73,0.00,,,0.00,193.00,VWS V14.01,2013-07-23 23:56:00,
2013-07-23 18:57:00,69.4,60.4,29.85,NNE,28,4.6,6.9,73,0.00,,,0.00,183.00,VWS V14.01,2013-07-23 23:57:00,
2013-07-23 19:00:00,69.3,60.7,29.85,NNE,13,6.9,9.2,74,0.00,,,0.00,162.00,VWS V14.01,2013-07-24 00:00:00,
2013-07-23 19:01:00,69.2,60.6,29.85,ENE,65,8.1,11.5,74,0.00,,,0.00,165.00,VWS V14.01,2013-07-24 00:01:00,
2013-07-23 19:03:00,69.1,60.5,29.85,NE,55,3.4,9.2,74,0.00,,,0.00,91.00,VWS V14.01,2013-07-24 00:03:00,
2013-07-23 19:05:00,69.0,60.4,29.85,NE,36,18.4,18.4,74,0.00,,,0.00,47.00,VWS V14.01,2013-07-24 00:05:00,
2013-07-23 19:07:00,68.8,60.6,29.85,North,11,8.1,13.8,75,0.00,,,0.00,44.00,VWS V14.01,2013-07-24 00:07:00,
2013-07-23 19:08:00,68.7,60.1,29.85,NNE,22,2.3,6.9,74,0.00,,,0.00,44.00,VWS V14.01,2013-07-24 00:08:00,
2013-07-23 19:10:00,68.5,59.9,29.85,NE,35,4.6,13.8,74,0.00,,,0.00,40.00,VWS V14.01,2013-07-24 00:10:00,
2013-07-23 19:12:00,68.3,59.7,29.85,ENE,76,4.6,6.9,74,0.00,,,0.00,39.00,VWS V14.01,2013-07-24 00:12:00,
2013-07-23 19:13:00,68.3,60.1,29.85,ENE,58,5.8,13.8,75,0.00,,,0.00,37.00,VWS V14.01,2013-07-24 00:13:00,
2013-07-23 19:15:00,68.1,59.9,29.86,NE,38,5.8,11.5,75,0.00,,,0.00,30.00,VWS V14.01,2013-07-24 00:15:00,
2013-07-23 19:17:00,68.0,59.8,29.86,ENE,59,10.3,10.3,75,0.00,,,0.00,33.00,VWS V14.01,2013-07-24 00:17:00,
2013-07-23 19:20:00,67.7,59.1,29.86,East,82,6.9,8.1,74,0.00,,,0.00,32.00,VWS V14.01,2013-07-24 00:20:00,
2013-07-23 19:21:00,67.6,59.4,29.86,NE,41,9.2,10.3,75,0.00,,,0.00,28.00,VWS V14.01,2013-07-24 00:21:00,
2013-07-23 19:23:00,67.6,59.4,29.86,NNE,13,9.2,9.2,75,0.00,,,0.00,30.00,VWS V14.01,2013-07-24 00:23:00,
2013-07-23 19:25:00,67.4,59.2,29.85,NE,42,5.8,6.9,75,0.00,,,0.00,30.00,VWS V14.01,2013-07-24 00:25:00,
2013-07-23 19:26:00,67.4,59.2,29.85,ENE,71,0.0,6.9,75,0.00,,,0.00,30.00,VWS V14.01,2013-07-24 00:26:00,
2013-07-23 19:27:00,67.4,59.2,29.85,NE,46,3.4,10.3,75,0.00,,,0.00,28.00,VWS V14.01,2013-07-24 00:27:00,
2013-07-23 19:28:00,67.3,59.1,29.85,NE,54,10.3,10.3,75,0.00,,,0.00,28.00,VWS V14.01,2013-07-24 00:28:00,
2013-07-23 19:32:00,67.2,59.0,29.85,North,360,8.1,12.6,75,0.00,,,0.00,26.00,VWS V14.01,2013-07-24 00:32:00,
2013-07-23 19:33:00,67.2,59.0,29.85,ESE,105,4.6,9.2,75,0.00,,,0.00,25.00,VWS V14.01,2013-07-24 00:33:00,
2013-07-23 19:34:00,67.2,59.0,29.85,ENE,72,5.8,17.2,75,0.00,,,0.00,25.00,VWS V14.01,2013-07-24 00:34:00,
2013-07-23 19:37:00,67.1,58.5,29.85,NNE,25,9.2,11.5,74,0.00,,,0.00,21.00,VWS V14.01,2013-07-24 00:37:00,
2013-07-23 19:38:00,67.1,58.5,29.85,ENE,61,4.6,10.3,74,0.00,,,0.00,21.00,VWS V14.01,2013-07-24 00:38:00,
2013-07-23 19:39:00,67.1,58.5,29.86,ESE,106,2.3,13.8,74,0.00,,,0.00,21.00,VWS V14.01,2013-07-24 00:39:00,
2013-07-23 19:40:00,67.0,58.5,29.86,North,11,5.8,5.8,74,0.00,,,0.00,21.00,VWS V14.01,2013-07-24 00:40:00,
2013-07-23 19:43:00,66.9,58.3,29.86,ENE,57,13.8,13.8,74,0.00,,,0.00,19.00,VWS V14.01,2013-07-24 00:43:00,
2013-07-23 19:44:00,66.9,58.3,29.85,NE,38,5.8,13.8,74,0.00,,,0.00,18.00,VWS V14.01,2013-07-24 00:44:00,
2013-07-23 19:45:00,66.8,58.3,29.86,East,79,8.1,10.3,74,0.00,,,0.00,18.00,VWS V14.01,2013-07-24 00:45:00,
2013-07-23 19:48:00,66.7,58.2,29.86,ENE,61,3.4,8.1,74,0.00,,,0.00,16.00,VWS V14.01,2013-07-24 00:48:00,
2013-07-23 19:50:00,66.7,58.2,29.86,NNE,19,6.9,6.9,74,0.00,,,0.00,16.00,VWS V14.01,2013-07-24 00:50:00,
2013-07-23 19:51:00,66.6,58.1,29.86,East,79,11.5,11.5,74,0.00,,,0.00,16.00,VWS V14.01,2013-07-24 00:51:00,
2013-07-23 19:54:00,66.5,58.0,29.86,North,5,8.1,12.6,74,0.00,,,0.00,14.00,VWS V14.01,2013-07-24 00:54:00,
2013-07-23 19:55:00,66.5,58.0,29.86,North,360,9.2,9.2,74,0.00,,,0.00,12.00,VWS V14.01,2013-07-24 00:55:00,
2013-07-23 19:56:00,66.4,57.9,29.86,NE,41,12.6,12.6,74,0.00,,,0.00,12.00,VWS V14.01,2013-07-24 00:56:00,
2013-07-23 19:58:00,66.3,57.8,29.86,ENE,74,13.8,13.8,74,0.00,,,0.00,11.00,VWS V14.01,2013-07-24 00:58:00,
2013-07-23 19:59:00,66.3,57.8,29.86,NE,34,2.3,13.8,74,0.00,,,0.00,11.00,VWS V14.01,2013-07-24 00:59:00,
2013-07-23 20:00:00,66.3,57.8,29.86,NE,55,3.4,4.6,74,0.00,,,0.00,11.00,VWS V14.01,2013-07-24 01:00:00,
2013-07-23 20:03:00,66.2,57.7,29.86,North,360,9.2,10.3,74,0.00,,,0.00,9.00,VWS V14.01,2013-07-24 01:03:00,
2013-07-23 20:04:00,66.2,57.7,29.86,NNE,26,4.6,9.2,74,0.00,,,0.00,7.00,VWS V14.01,2013-07-24 01:04:00,
2013-07-23 20:05:00,66.2,57.7,29.87,NNE,32,6.9,12.6,74,0.00,,,0.00,7.00,VWS V14.01,2013-07-24 01:05:00,
2013-07-23 20:08:00,66.1,57.6,29.87,ENE,71,4.6,9.2,74,0.00,,,0.00,7.00,VWS V14.01,2013-07-24 01:08:00,
2013-07-23 20:09:00,66.1,57.6,29.87,ENE,62,5.8,13.8,74,0.00,,,0.00,5.00,VWS V14.01,2013-07-24 01:09:00,
2013-07-23 20:11:00,66.0,57.5,29.87,ENE,57,4.6,12.6,74,0.00,,,0.00,5.00,VWS V14.01,2013-07-24 01:11:00,
2013-07-23 20:13:00,65.9,57.4,29.87,NNE,27,1.1,3.4,74,0.00,,,0.00,0.00,VWS V14.01,2013-07-24 01:13:00,
2013-07-23 20:14:00,65.9,57.4,29.87,ENE,78,5.8,5.8,74,0.00,,,0.00,0.00,VWS V14.01,2013-07-24 01:14:00,
2013-07-23 20:16:00,65.8,57.3,29.87,East,84,5.8,5.8,74,0.00,,,0.00,0.00,VWS V14.01,2013-07-24 01:16:00,
2013-07-23 20:19:00,65.7,57.2,29.87,ENE,66,8.1,10.3,74,0.00,,,0.00,0.00,VWS V14.01,2013-07-24 01:19:00,
2013-07-23 20:20:00,65.7,57.2,29.87,NNE,25,4.6,6.9,74,0.00,,,0.00,0.00,VWS V14.01,2013-07-24 01:20:00,
2013-07-23 20:22:00,65.6,57.5,29.87,North,355,9.2,9.2,75,0.00,,,0.00,0.00,VWS V14.01,2013-07-24 01:22:00,
2013-07-23 20:24:00,65.6,57.5,29.87,ENE,57,2.3,11.5,75,0.00,,,0.00,0.00,VWS V14.01,2013-07-24 01:24:00,
2013-07-23 20:25:00,65.5,57.4,29.88,NE,49,1.1,3.4,75,0.00,,,0.00,0.00,VWS V14.01,2013-07-24 01:25:00,
2013-07-23 20:28:00,65.5,57.4,29.88,ENE,74,9.2,9.2,75,0.00,,,0.00,0.00,VWS V14.01,2013-07-24 01:28:00,
2013-07-23 20:30:00,65.4,57.3,29.88,ENE,63,3.4,6.9,75,0.00,,,0.00,0.00,VWS V14.01,2013-07-24 01:30:00,
2013-07-23 20:31:00,65.4,57.7,29.88,ENE,67,8.1,8.1,76,0.00,,,0.00,0.00,VWS V14.01,2013-07-24 01:31:00,
2013-07-23 20:33:00,65.3,57.2,29.88,ENE,65,10.3,18.4,75,0.00,,,0.00,0.00,VWS V14.01,2013-07-24 01:33:00,
2013-07-23 20:35:00,65.3,57.2,29.88,NNE,28,10.3,10.3,75,0.00,,,0.00,0.00,VWS V14.01,2013-07-24 01:35:00,
2013-07-23 20:36:00,65.3,57.5,29.88,North,355,4.6,10.3,76,0.00,,,0.00,0.00,VWS V14.01,2013-07-24 01:36:00,
2013-07-23 20:40:00,65.2,57.1,29.88,NNW,346,8.1,8.1,75,0.00,,,0.00,0.00,VWS V14.01,2013-07-24 01:40:00,
2013-07-23 20:41:00,65.2,57.1,29.88,ENE,76,3.4,6.9,75,0.00,,,0.00,0.00,VWS V14.01,2013-07-24 01:41:00,
2013-07-23 20:42:00,65.2,57.1,29.88,NE,36,2.3,8.1,75,0.00,,,0.00,0.00,VWS V14.01,2013-07-24 01:42:00,
2013-07-23 20:46:00,65.0,57.3,29.89,NE,39,4.6,5.8,76,0.00,,,0.00,0.00,VWS V14.01,2013-07-24 01:46:00,
2013-07-23 20:47:00,64.9,57.2,29.89,ENE,59,11.5,11.5,76,0.00,,,0.00,0.00,VWS V14.01,2013-07-24 01:47:00,
2013-07-23 20:52:00,64.8,57.4,29.89,ENE,61,2.3,5.8,77,0.00,,,0.00,0.00,VWS V14.01,2013-07-24 01:52:00,
2013-07-23 20:53:00,64.7,57.3,29.89,ENE,61,2.3,2.3,77,0.00,,,0.00,0.00,VWS V14.01,2013-07-24 01:53:00,
2013-07-23 20:57:00,64.7,57.3,29.89,NE,43,5.8,8.1,77,0.00,,,0.00,0.00,VWS V14.01,2013-07-24 01:57:00,
2013-07-23 20:58:00,64.6,57.2,29.89,NE,52,8.1,11.5,77,0.00,,,0.00,0.00,VWS V14.01,2013-07-24 01:58:00,
2013-07-23 21:02:00,64.5,57.1,29.89,NE,40,2.3,8.1,77,0.00,,,0.00,0.00,VWS V14.01,2013-07-24 02:02:00,
2013-07-23 21:03:00,64.5,57.1,29.90,ENE,58,3.4,8.1,77,0.00,,,0.00,0.00,VWS V14.01,2013-07-24 02:03:00,
2013-07-23 21:05:00,64.5,57.1,29.90,NE,39,4.6,10.3,77,0.00,,,0.00,0.00,VWS V14.01,2013-07-24 02:05:00,
2013-07-23 21:07:00,64.4,57.0,29.90,NNE,15,1.1,6.9,77,0.00,,,0.00,0.00,VWS V14.01,2013-07-24 02:07:00,
2013-07-23 21:09:00,64.3,57.0,29.91,NE,49,3.4,3.4,77,0.00,,,0.00,0.00,VWS V14.01,2013-07-24 02:09:00,
2013-07-23 21:12:00,64.2,56.8,29.91,NE,53,2.3,8.1,77,0.00,,,0.00,0.00,VWS V14.01,2013-07-24 02:12:00,
2013-07-23 21:14:00,64.2,56.5,29.91,NE,54,4.6,4.6,76,0.00,,,0.00,0.00,VWS V14.01,2013-07-24 02:14:00,
2013-07-23 21:16:00,64.1,56.8,29.91,NE,53,0.0,3.4,77,0.00,,,0.00,0.00,VWS V14.01,2013-07-24 02:16:00,
2013-07-23 21:18:00,64.0,56.3,29.91,NE,48,0.0,8.1,76,0.00,,,0.00,0.00,VWS V14.01,2013-07-24 02:18:00,
2013-07-23 21:20:00,64.0,56.7,29.91,NE,41,6.9,8.1,77,0.00,,,0.00,0.00,VWS V14.01,2013-07-24 02:20:00,
2013-07-23 21:21:00,63.9,56.2,29.91,NE,42,9.2,9.2,76,0.00,,,0.00,0.00,VWS V14.01,2013-07-24 02:21:00,
2013-07-23 21:23:00,63.9,56.2,29.91,East,97,6.9,9.2,76,0.00,,,0.00,0.00,VWS V14.01,2013-07-24 02:23:00,
2013-07-23 21:24:00,63.9,56.2,29.91,ENE,67,4.6,9.2,76,0.00,,,0.00,0.00,VWS V14.01,2013-07-24 02:24:00,
2013-07-23 21:25:00,63.9,56.2,29.91,NE,46,2.3,4.6,76,0.00,,,0.00,0.00,VWS V14.01,2013-07-24 02:25:00,
2013-07-23 21:28:00,63.9,56.2,29.91,ENE,58,8.1,8.1,76,0.00,,,0.00,0.00,VWS V14.01,2013-07-24 02:28:00,
2013-07-23 21:29:00,63.8,56.1,29.91,NNE,30,3.4,3.4,76,0.00,,,0.00,0.00,VWS V14.01,2013-07-24 02:29:00,
2013-07-23 21:31:00,63.8,56.1,29.92,NE,46,6.9,6.9,76,0.00,,,0.00,0.00,VWS V14.01,2013-07-24 02:31:00,
2013-07-23 21:32:00,63.8,56.1,29.92,NE,53,3.4,6.9,76,0.00,,,0.00,0.00,VWS V14.01,2013-07-24 02:32:00,
2013-07-23 21:33:00,63.8,56.1,29.92,NE,44,3.4,4.6,76,0.00,,,0.00,0.00,VWS V14.01,2013-07-24 02:33:00,
2013-07-23 21:34:00,63.7,56.4,29.92,ENE,67,2.3,2.3,77,0.00,,,0.00,0.00,VWS V14.01,2013-07-24 02:34:00,
2013-07-23 21:37:00,63.6,56.3,29.92,NNE,29,5.8,5.8,77,0.00,,,0.00,0.00,VWS V14.01,2013-07-24 02:37:00,
2013-07-23 21:40:00,63.6,56.3,29.92,ENE,60,0.0,5.8,77,0.00,,,0.00,0.00,VWS V14.01,2013-07-24 02:40:00,
2013-07-23 21:42:00,63.5,56.2,29.92,ENE,63,2.3,8.1,77,0.00,,,0.00,0.00,VWS V14.01,2013-07-24 02:42:00,
2013-07-23 21:45:00,63.4,56.1,29.92,NE,53,0.0,4.6,77,0.00,,,0.00,0.00,VWS V14.01,2013-07-24 02:45:00,
2013-07-23 21:47:00,63.4,56.1,29.92,ENE,67,1.1,3.4,77,0.00,,,0.00,0.00,VWS V14.01,2013-07-24 02:47:00,
2013-07-23 21:49:00,63.2,56.2,29.92,NE,36,1.1,3.4,78,0.00,,,0.00,0.00,VWS V14.01,2013-07-24 02:49:00,
2013-07-23 21:51:00,63.2,56.2,29.92,NE,40,3.4,3.4,78,0.00,,,0.00,0.00,VWS V14.01,2013-07-24 02:51:00,
2013-07-23 21:52:00,63.1,56.1,29.92,ENE,57,2.3,4.6,78,0.00,,,0.00,0.00,VWS V14.01,2013-07-24 02:52:00,
2013-07-23 21:54:00,63.1,56.1,29.92,NE,54,2.3,2.3,78,0.00,,,0.00,0.00,VWS V14.01,2013-07-24 02:54:00,
2013-07-23 21:56:00,63.1,56.1,29.92,NNE,30,1.1,2.3,78,0.00,,,0.00,0.00,VWS V14.01,2013-07-24 02:56:00,
2013-07-23 21:57:00,63.0,56.0,29.92,NE,46,2.3,4.6,78,0.00,,,0.00,0.00,VWS V14.01,2013-07-24 02:57:00,
2013-07-23 21:59:00,62.9,56.3,29.93,ENE,76,4.6,4.6,79,0.00,,,0.00,0.00,VWS V14.01,2013-07-24 02:59:00,
2013-07-23 22:00:00,62.8,56.2,29.93,NE,53,1.1,2.3,79,0.00,,,0.00,0.00,VWS V14.01,2013-07-24 03:00:00,
2013-07-23 22:01:00,62.7,56.1,29.93,NE,45,2.3,3.4,79,0.00,,,0.00,0.00,VWS V14.01,2013-07-24 03:01:00,
2013-07-23 22:02:00,62.6,56.0,29.93,NE,45,0.0,0.0,79,0.00,,,0.00,0.00,VWS V14.01,2013-07-24 03:02:00,
2013-07-23 22:04:00,62.6,56.0,29.93,NE,43,2.3,2.3,79,0.00,,,0.00,0.00,VWS V14.01,2013-07-24 03:04:00,
2013-07-23 22:06:00,62.5,56.2,29.93,NE,53,3.4,4.6,80,0.00,,,0.00,0.00,VWS V14.01,2013-07-24 03:06:00,
2013-07-23 22:09:00,62.4,56.2,29.93,NE,46,3.4,4.6,80,0.00,,,0.00,0.00,VWS V14.01,2013-07-24 03:09:00,
2013-07-23 22:11:00,62.3,56.1,29.93,NE,46,1.1,2.3,80,0.00,,,0.00,0.00,VWS V14.01,2013-07-24 03:11:00,
2013-07-23 22:12:00,62.3,56.1,29.93,NE,46,1.1,2.3,80,0.00,,,0.00,0.00,VWS V14.01,2013-07-24 03:12:00,
2013-07-23 22:15:00,62.1,56.2,29.93,NE,34,3.4,3.4,81,0.00,,,0.00,0.00,VWS V14.01,2013-07-24 03:15:00,
2013-07-23 22:17:00,61.9,56.0,29.93,NNE,19,5.8,5.8,81,0.00,,,0.00,0.00,VWS V14.01,2013-07-24 03:17:00,
2013-07-23 22:20:00,61.7,55.8,29.94,ENE,59,0.0,2.3,81,0.00,,,0.00,0.00,VWS V14.01,2013-07-24 03:20:00,
2013-07-23 22:23:00,61.7,55.8,29.94,NNE,33,3.4,3.4,81,0.00,,,0.00,0.00,VWS V14.01,2013-07-24 03:23:00,
2013-07-23 22:25:00,61.5,56.0,29.94,NE,37,2.3,2.3,82,0.00,,,0.00,0.00,VWS V14.01,2013-07-24 03:25:00,
2013-07-23 22:28:00,61.3,55.8,29.94,NE,40,0.0,2.3,82,0.00,,,0.00,0.00,VWS V14.01,2013-07-24 03:28:00,
2013-07-23 22:29:00,61.3,55.8,29.94,NE,40,0.0,2.3,82,0.00,,,0.00,0.00,VWS V14.01,2013-07-24 03:29:00,
2013-07-23 22:31:00,61.2,55.7,29.94,NNE,24,2.3,4.6,82,0.00,,,0.00,0.00,VWS V14.01,2013-07-24 03:31:00,
2013-07-23 22:33:00,61.2,55.7,29.94,NE,40,2.3,3.4,82,0.00,,,0.00,0.00,VWS V14.01,2013-07-24 03:33:00,
2013-07-23 22:34:00,61.2,55.7,29.94,NE,42,0.0,3.4,82,0.00,,,0.00,0.00,VWS V14.01,2013-07-24 03:34:00,
2013-07-23 22:35:00,61.3,55.8,29.94,NE,40,2.3,3.4,82,0.00,,,0.00,0.00,VWS V14.01,2013-07-24 03:35:00,
2013-07-23 22:38:00,61.4,55.9,29.94,NE,36,1.1,4.6,82,0.00,,,0.00,0.00,VWS V14.01,2013-07-24 03:38:00,
2013-07-23 22:39:00,61.4,55.9,29.94,North,5,2.3,4.6,82,0.00,,,0.00,0.00,VWS V14.01,2013-07-24 03:39:00,
2013-07-23 22:41:00,61.4,55.9,29.94,North,9,3.4,4.6,82,0.00,,,0.00,0.00,VWS V14.01,2013-07-24 03:41:00,
2013-07-23 22:43:00,61.4,55.5,29.94,NE,49,0.0,2.3,81,0.00,,,0.00,0.00,VWS V14.01,2013-07-24 03:43:00,
2013-07-23 22:44:00,61.3,55.8,29.94,NNW,348,3.4,4.6,82,0.00,,,0.00,0.00,VWS V14.01,2013-07-24 03:44:00,
2013-07-23 22:47:00,61.3,55.8,29.94,NNE,31,1.1,2.3,82,0.00,,,0.00,0.00,VWS V14.01,2013-07-24 03:47:00,
2013-07-23 22:49:00,61.2,55.7,29.94,NNE,32,2.3,4.6,82,0.00,,,0.00,0.00,VWS V14.01,2013-07-24 03:49:00,
2013-07-23 22:52:00,61.1,55.6,29.94,NNE,32,3.4,3.4,82,0.00,,,0.00,0.00,VWS V14.01,2013-07-24 03:52:00,
2013-07-23 22:55:00,61.1,55.6,29.95,NNE,21,3.4,3.4,82,0.00,,,0.00,0.00,VWS V14.01,2013-07-24 03:55:00,
2013-07-23 22:57:00,61.1,55.6,29.95,North,355,1.1,2.3,82,0.00,,,0.00,0.00,VWS V14.01,2013-07-24 03:57:00,
2013-07-23 22:58:00,61.1,55.6,29.95,North,355,1.1,2.3,82,0.00,,,0.00,0.00,VWS V14.01,2013-07-24 03:58:00,
2013-07-23 23:00:00,61.1,55.6,29.95,NNE,15,2.3,2.3,82,0.00,,,0.00,0.00,VWS V14.01,2013-07-24 04:00:00,
2013-07-23 23:01:00,61.1,55.6,29.95,NNE,15,0.0,2.3,82,0.00,,,0.00,0.00,VWS V14.01,2013-07-24 04:01:00,
2013-07-23 23:03:00,61.1,55.9,29.95,NNE,30,1.1,2.3,83,0.00,,,0.00,0.00,VWS V14.01,2013-07-24 04:03:00,
2013-07-23 23:06:00,61.0,55.8,29.95,NE,38,3.4,3.4,83,0.00,,,0.00,0.00,VWS V14.01,2013-07-24 04:06:00,
2013-07-23 23:07:00,60.9,55.7,29.95,NE,37,0.0,2.3,83,0.00,,,0.00,0.00,VWS V14.01,2013-07-24 04:07:00,
2013-07-23 23:08:00,60.9,55.7,29.95,North,5,3.4,3.4,83,0.00,,,0.00,0.00,VWS V14.01,2013-07-24 04:08:00,
2013-07-23 23:09:00,60.9,55.7,29.95,North,5,0.0,3.4,83,0.00,,,0.00,0.00,VWS V14.01,2013-07-24 04:09:00,
2013-07-23 23:11:00,60.8,55.6,29.95,North,355,1.1,3.4,83,0.00,,,0.00,0.00,VWS V14.01,2013-07-24 04:11:00,
2013-07-23 23:14:00,60.7,55.5,29.95,NNE,15,0.0,1.1,83,0.00,,,0.00,0.00,VWS V14.01,2013-07-24 04:14:00,
2013-07-23 23:17:00,60.6,55.4,29.95,North,355,2.3,6.9,83,0.00,,,0.00,0.00,VWS V14.01,2013-07-24 04:17:00,
2013-07-23 23:19:00,60.5,55.7,29.95,NNW,346,3.4,3.4,84,0.00,,,0.00,0.00,VWS V14.01,2013-07-24 04:19:00,
2013-07-23 23:22:00,60.4,55.5,29.95,NNW,348,3.4,5.8,84,0.00,,,0.00,0.00,VWS V14.01,2013-07-24 04:22:00,
2013-07-23 23:24:00,60.4,55.5,29.95,NNW,340,2.3,2.3,84,0.00,,,0.00,0.00,VWS V14.01,2013-07-24 04:24:00,
2013-07-23 23:25:00,60.4,55.5,29.95,NNW,340,2.3,2.3,84,0.00,,,0.00,0.00,VWS V14.01,2013-07-24 04:25:00,
2013-07-23 23:27:00,60.4,55.5,29.95,North,355,4.6,5.8,84,0.00,,,0.00,0.00,VWS V14.01,2013-07-24 04:27:00,
2013-07-23 23:29:00,60.4,55.5,29.95,North,360,1.1,3.4,84,0.00,,,0.00,0.00,VWS V14.01,2013-07-24 04:29:00,
2013-07-23 23:30:00,60.4,55.5,29.95,North,360,2.3,3.4,84,0.00,,,0.00,0.00,VWS V14.01,2013-07-24 04:30:00,
2013-07-23 23:31:00,60.4,55.9,29.95,North,360,0.0,0.0,85,0.00,,,0.00,0.00,VWS V14.01,2013-07-24 04:31:00,
2013-07-23 23:32:00,60.5,55.7,29.96,North,360,3.4,3.4,84,0.00,,,0.00,0.00,VWS V14.01,2013-07-24 04:32:00,
2013-07-23 23:35:00,60.5,55.7,29.96,North,360,0.0,2.3,84,0.00,,,0.00,0.00,VWS V14.01,2013-07-24 04:35:00,
2013-07-23 23:36:00,60.5,55.7,29.96,North,9,4.6,4.6,84,0.00,,,0.00,0.00,VWS V14.01,2013-07-24 04:36:00,
2013-07-23 23:39:00,60.3,55.5,29.96,North,9,0.0,4.6,84,0.00,,,0.00,0.00,VWS V14.01,2013-07-24 04:39:00,
2013-07-23 23:40:00,60.3,55.5,29.96,North,9,1.1,3.4,84,0.00,,,0.00,0.00,VWS V14.01,2013-07-24 04:40:00,
2013-07-23 23:41:00,60.2,55.3,29.96,North,9,1.1,1.1,84,0.00,,,0.00,0.00,VWS V14.01,2013-07-24 04:41:00,
2013-07-23 23:42:00,60.2,55.7,29.96,North,9,3.4,3.4,85,0.00,,,0.00,0.00,VWS V14.01,2013-07-24 04:42:00,
2013-07-23 23:45:00,60.2,56.0,29.96,North,5,4.6,4.6,86,0.00,,,0.00,0.00,VWS V14.01,2013-07-24 04:45:00,
2013-07-23 23:46:00,60.2,56.0,29.96,North,350,2.3,4.6,86,0.00,,,0.00,0.00,VWS V14.01,2013-07-24 04:46:00,
2013-07-23 23:47:00,60.3,56.1,29.96,North,350,0.0,0.0,86,0.00,,,0.00,0.00,VWS V14.01,2013-07-24 04:47:00,
2013-07-23 23:50:00,60.1,55.9,29.96,NNW,348,0.0,2.3,86,0.00,,,0.00,0.00,VWS V14.01,2013-07-24 04:50:00,
2013-07-23 23:51:00,60.1,55.9,29.96,NNW,348,2.3,3.4,86,0.00,,,0.00,0.00,VWS V14.01,2013-07-24 04:51:00,
2013-07-23 23:52:00,60.0,55.8,29.96,NNW,348,1.1,2.3,86,0.00,,,0.00,0.00,VWS V14.01,2013-07-24 04:52:00,
2013-07-23 23:53:00,60.0,55.8,29.96,NNW,348,1.1,2.3,86,0.00,,,0.00,0.00,VWS V14.01,2013-07-24 04:53:00,
2013-07-23 23:55:00,60.0,55.8,29.96,NNW,348,2.3,2.3,86,0.00,,,0.00,0.00,VWS V14.01,2013-07-24 04:55:00,
2013-07-23 23:56:00,59.9,55.7,29.96,NNW,348,0.0,2.3,86,0.00,,,0.00,0.00,VWS V14.01,2013-07-24 04:56:00,
2013-07-23 23:58:00,59.9,55.7,29.96,NNW,348,0.0,1.1,86,0.00,,,0.00,0.00,VWS V14.01,2013-07-24 04:58:00,